Wetterdaten: aktuell Mittwoch, 19.02.2020 13:35
Datum Zeit Temp. A. Boden +5cm Boden -5cm Boden -10cm Boden -20cm Feuchte A. Blattfeuchte Bodenf. -5cm Bodenf.-10cm Bodenf.-20cm Bodenf.-50cm Luftdruck Regen Wind Richtung Richtung Sonnenschein ET UV Solar Taupunkt Windchill Windben
19.02.2020 13:35 3,8 C 7,2 C 5,6 C 5,0 C 4,4 C 78 % 0 lf 6 cb 81 cb 56 cb 14 cb 1021,3 hPa 0,0 l/m 16,7 km/h (3 Bft) W 265 2 min 0,000 mm 1,3 UV-I 503 W/m 0,3 C -3,2 C 27,4 km/h (4 Bft)
19.02.2020 13:33 3,8 C 6,7 C 5,6 C 5,0 C 4,4 C 79 % 0 lf 6 cb 81 cb 56 cb 14 cb 1021,3 hPa 0,0 l/m 16,6 km/h (3 Bft) W-NW 298 2 min 0,000 mm 0,8 UV-I 485 W/m 0,5 C -3,2 C 30,6 km/h (5 Bft)
19.02.2020 13:31 3,7 C 6,1 C 5,6 C 5,0 C 4,4 C 79 % 0 lf 6 cb 81 cb 56 cb 14 cb 1021,3 hPa 0,0 l/m 10,1 km/h (2 Bft) W 271 2 min 0,000 mm 1,3 UV-I 485 W/m 0,4 C 0,6 C 20,9 km/h (4 Bft)
19.02.2020 13:29 3,7 C 5,6 C 5,6 C 5,0 C 4,4 C 78 % 0 lf 6 cb 81 cb 56 cb 14 cb 1021,3 hPa 0,0 l/m 12,8 km/h (3 Bft) W-NW 291 0 min 0,000 mm 1,2 UV-I 69 W/m 0,2 C -1,2 C 19,3 km/h (3 Bft)
19.02.2020 13:27 3,7 C 5,6 C 5,6 C 5,0 C 4,4 C 78 % 0 lf 6 cb 81 cb 56 cb 14 cb 1021,4 hPa 0,0 l/m 11,1 km/h (2 Bft) W 273 0 min 0,000 mm 1,7 UV-I 156 W/m 0,2 C -0,1 C 22,5 km/h (4 Bft)
19.02.2020 13:25 3,8 C 6,7 C 5,6 C 5,0 C 4,4 C 79 % 0 lf 6 cb 81 cb 56 cb 14 cb 1021,4 hPa 0,0 l/m 16,0 km/h (3 Bft) W-NW 294 0 min 0,000 mm 0,7 UV-I 156 W/m 0,5 C -2,9 C 32,2 km/h (5 Bft)
19.02.2020 13:23 3,8 C 6,7 C 5,6 C 5,0 C 4,4 C 79 % 0 lf 6 cb 81 cb 56 cb 14 cb 1021,3 hPa 0,0 l/m 16,2 km/h (3 Bft) W-NW 295 2 min 0,000 mm 1,1 UV-I 464 W/m 0,5 C -3,0 C 30,6 km/h (5 Bft)
19.02.2020 13:21 3,8 C 6,1 C 5,6 C 5,0 C 4,4 C 79 % 0 lf 6 cb 81 cb 56 cb 14 cb 1021,3 hPa 0,0 l/m 18,9 km/h (3 Bft) W-NW 288 0 min 0,000 mm 1,3 UV-I 60 W/m 0,5 C -4,3 C 27,4 km/h (4 Bft)
19.02.2020 13:19 3,8 C 7,8 C 5,6 C 5,0 C 4,4 C 80 % 0 lf 6 cb 80 cb 56 cb 14 cb 1021,3 hPa 0,0 l/m 15,6 km/h (3 Bft) W 259 0 min 0,000 mm 0,7 UV-I 81 W/m 0,7 C -2,7 C 29,0 km/h (5 Bft)
19.02.2020 13:17 3,8 C 8,9 C 5,6 C 5,0 C 4,4 C 81 % 0 lf 7 cb 80 cb 56 cb 14 cb 1021,2 hPa 0,0 l/m 19,0 km/h (3 Bft) W-NW 284 2 min 0,000 mm 1,2 UV-I 429 W/m 0,8 C -4,3 C 32,2 km/h (5 Bft)
19.02.2020 13:15 3,7 C 8,9 C 5,6 C 5,0 C 4,4 C 81 % 0 lf 7 cb 80 cb 56 cb 14 cb 1021,3 hPa 0,0 l/m 18,6 km/h (3 Bft) W 265 2 min 0,000 mm 1,3 UV-I 431 W/m 0,7 C -4,3 C 32,2 km/h (5 Bft)
19.02.2020 13:13 3,6 C 7,8 C 5,6 C 5,0 C 4,4 C 81 % 0 lf 6 cb 80 cb 56 cb 14 cb 1021,3 hPa 0,0 l/m 18,1 km/h (3 Bft) W 269 0 min 0,000 mm 0,9 UV-I 218 W/m 0,7 C -4,2 C 35,4 km/h (5 Bft)
19.02.2020 13:11 3,6 C 8,3 C 5,6 C 5,0 C 4,4 C 82 % 0 lf 6 cb 80 cb 56 cb 14 cb 1021,3 hPa 0,0 l/m 9,3 km/h (2 Bft) W-SW 254 2 min 0,000 mm 1,2 UV-I 346 W/m 0,8 C 1,1 C 22,5 km/h (4 Bft)
19.02.2020 13:09 3,5 C 7,8 C 5,6 C 5,0 C 4,4 C 82 % 0 lf 7 cb 81 cb 56 cb 14 cb 1021,2 hPa 0,0 l/m 12,7 km/h (3 Bft) W 265 2 min 0,000 mm 1,2 UV-I 330 W/m 0,7 C -1,4 C 27,4 km/h (4 Bft)
19.02.2020 13:07 3,5 C 6,1 C 5,6 C 5,0 C 4,4 C 81 % 0 lf 6 cb 81 cb 56 cb 14 cb 1021,3 hPa 0,0 l/m 12,5 km/h (3 Bft) W-NW 294 2 min 0,000 mm 0,9 UV-I 330 W/m 0,6 C -1,3 C 24,1 km/h (4 Bft)
19.02.2020 13:05 3,6 C 5,0 C 5,6 C 5,0 C 4,4 C 80 % 0 lf 6 cb 81 cb 56 cb 14 cb 1021,3 hPa 0,0 l/m 15,5 km/h (3 Bft) W-SW 252 0 min 0,000 mm 0,6 UV-I 141 W/m 0,5 C -2,9 C 22,5 km/h (4 Bft)
19.02.2020 13:03 3,7 C 5,0 C 5,6 C 5,0 C 4,4 C 79 % 0 lf 6 cb 81 cb 56 cb 14 cb 1021,2 hPa 0,0 l/m 18,6 km/h (3 Bft) W 275 0 min 0,000 mm 0,0 UV-I 142 W/m 0,4 C -4,3 C 33,8 km/h (5 Bft)
19.02.2020 13:01 3,9 C 5,0 C 5,6 C 5,0 C 4,4 C 78 % 0 lf 6 cb 81 cb 56 cb 14 cb 1021,2 hPa 0,0 l/m 19,5 km/h (3 Bft) W 281 0 min 0,152 mm 0,7 UV-I 142 W/m 0,4 C -4,4 C 27,4 km/h (4 Bft)
19.02.2020 12:59 4,2 C 6,1 C 5,6 C 5,0 C 4,4 C 79 % 0 lf 6 cb 81 cb 56 cb 14 cb 1021,4 hPa 0,0 l/m 19,8 km/h (3 Bft) W 269 0 min 0,000 mm 0,6 UV-I 93 W/m 0,9 C -4,1 C 32,2 km/h (5 Bft)
19.02.2020 12:57 4,3 C 8,3 C 5,6 C 5,0 C 4,4 C 80 % 0 lf 6 cb 81 cb 56 cb 14 cb 1021,2 hPa 0,0 l/m 19,2 km/h (3 Bft) W 263 0 min 0,000 mm 0,7 UV-I 104 W/m 1,2 C -3,7 C 32,2 km/h (5 Bft)
19.02.2020 12:55 4,2 C 9,4 C 5,6 C 5,0 C 4,4 C 80 % 0 lf 7 cb 81 cb 56 cb 14 cb 1021,2 hPa 0,0 l/m 12,8 km/h (3 Bft) W 271 2 min 0,000 mm 1,0 UV-I 519 W/m 1,1 C -0,7 C 20,9 km/h (4 Bft)
19.02.2020 12:53 4,2 C 9,4 C 5,6 C 5,0 C 4,4 C 79 % 0 lf 7 cb 81 cb 56 cb 14 cb 1021,2 hPa 0,0 l/m 22,0 km/h (4 Bft) W-SW 251 2 min 0,000 mm 1,4 UV-I 633 W/m 0,9 C -5,0 C 40,2 km/h (6 Bft)
19.02.2020 12:51 4,1 C 8,9 C 5,6 C 5,0 C 4,4 C 80 % 0 lf 7 cb 81 cb 56 cb 14 cb 1021,2 hPa 0,0 l/m 20,0 km/h (4 Bft) W-NW 298 2 min 0,000 mm 1,4 UV-I 594 W/m 1,0 C -4,3 C 37,0 km/h (5 Bft)
19.02.2020 12:49 4,1 C 7,8 C 5,6 C 5,0 C 4,4 C 80 % 0 lf 7 cb 81 cb 56 cb 14 cb 1021,3 hPa 0,0 l/m 17,9 km/h (3 Bft) W-NW 290 2 min 0,000 mm 1,4 UV-I 575 W/m 1,0 C -3,4 C 29,0 km/h (5 Bft)
19.02.2020 12:47 3,9 C 7,2 C 5,6 C 5,0 C 4,4 C 81 % 0 lf 7 cb 81 cb 56 cb 14 cb 1021,2 hPa 0,0 l/m 17,9 km/h (3 Bft) W 279 2 min 0,000 mm 1,4 UV-I 494 W/m 0,9 C -3,7 C 40,2 km/h (6 Bft)
19.02.2020 12:45 3,8 C 7,8 C 5,6 C 4,4 C 4,4 C 81 % 0 lf 7 cb 81 cb 55 cb 14 cb 1021,1 hPa 0,0 l/m 17,8 km/h (3 Bft) W 271 2 min 0,000 mm 1,3 UV-I 450 W/m 0,8 C -3,8 C 46,7 km/h (6 Bft)
19.02.2020 12:43 3,8 C 7,2 C 5,6 C 4,4 C 4,4 C 81 % 0 lf 7 cb 81 cb 55 cb 14 cb 1021,1 hPa 0,0 l/m 16,9 km/h (3 Bft) W-NW 287 2 min 0,000 mm 1,2 UV-I 457 W/m 0,8 C -3,3 C 35,4 km/h (5 Bft)
19.02.2020 12:41 3,8 C 7,2 C 5,6 C 4,4 C 4,4 C 81 % 0 lf 7 cb 81 cb 55 cb 14 cb 1021,2 hPa 0,0 l/m 20,0 km/h (4 Bft) W 270 2 min 0,000 mm 1,1 UV-I 429 W/m 0,8 C -4,7 C 33,8 km/h (5 Bft)
19.02.2020 12:39 3,7 C 6,7 C 5,6 C 4,4 C 4,4 C 82 % 0 lf 7 cb 81 cb 55 cb 14 cb 1021,2 hPa 0,0 l/m 16,0 km/h (3 Bft) W 267 2 min 0,000 mm 1,0 UV-I 415 W/m 0,9 C -3,0 C 35,4 km/h (5 Bft)
19.02.2020 12:37 3,7 C 6,1 C 5,6 C 4,4 C 4,4 C 82 % 0 lf 7 cb 81 cb 55 cb 14 cb 1021,2 hPa 0,0 l/m 11,1 km/h (2 Bft) W 269 2 min 0,000 mm 0,9 UV-I 413 W/m 0,9 C -0,1 C 27,4 km/h (4 Bft)
19.02.2020 12:35 3,7 C 6,1 C 5,6 C 4,4 C 4,4 C 82 % 0 lf 7 cb 81 cb 55 cb 14 cb 1021,2 hPa 0,0 l/m 13,8 km/h (3 Bft) W-NW 286 0 min 0,000 mm 0,9 UV-I 83 W/m 0,9 C -1,8 C 27,4 km/h (4 Bft)
19.02.2020 12:33 3,8 C 6,1 C 5,6 C 4,4 C 4,4 C 82 % 0 lf 7 cb 81 cb 55 cb 14 cb 1021,2 hPa 0,0 l/m 17,8 km/h (3 Bft) W-NW 294 0 min 0,000 mm 1,1 UV-I 83 W/m 1,0 C -3,8 C 29,0 km/h (5 Bft)
19.02.2020 12:31 3,9 C 7,2 C 5,0 C 4,4 C 4,4 C 83 % 0 lf 7 cb 80 cb 55 cb 14 cb 1021,2 hPa 0,0 l/m 16,9 km/h (3 Bft) W 275 0 min 0,000 mm 0,8 UV-I 118 W/m 1,3 C -3,2 C 25,7 km/h (4 Bft)
19.02.2020 12:29 3,8 C 7,8 C 5,0 C 4,4 C 4,4 C 83 % 0 lf 7 cb 80 cb 55 cb 14 cb 1021,2 hPa 0,0 l/m 21,3 km/h (4 Bft) W 279 2 min 0,000 mm 1,2 UV-I 490 W/m 1,2 C -5,2 C 38,6 km/h (5 Bft)
19.02.2020 12:27 3,8 C 7,8 C 5,0 C 4,4 C 4,4 C 85 % 0 lf 7 cb 80 cb 55 cb 14 cb 1021,1 hPa 0,0 l/m 16,0 km/h (3 Bft) W-SW 258 2 min 0,000 mm 1,3 UV-I 640 W/m 1,5 C -2,9 C 30,6 km/h (5 Bft)
19.02.2020 12:25 3,7 C 6,7 C 5,0 C 4,4 C 4,4 C 84 % 0 lf 7 cb 80 cb 55 cb 14 cb 1021,1 hPa 0,0 l/m 13,2 km/h (3 Bft) W-NW 289 0 min 0,000 mm 1,2 UV-I 174 W/m 1,3 C -1,5 C 22,5 km/h (4 Bft)
19.02.2020 12:23 3,7 C 6,1 C 5,0 C 4,4 C 4,4 C 84 % 0 lf 7 cb 80 cb 55 cb 14 cb 1021,2 hPa 0,0 l/m 17,5 km/h (3 Bft) W 271 0 min 0,000 mm 1,3 UV-I 174 W/m 1,3 C -3,8 C 40,2 km/h (6 Bft)
19.02.2020 12:21 3,7 C 6,1 C 5,0 C 4,4 C 4,4 C 84 % 0 lf 7 cb 80 cb 55 cb 14 cb 1021,2 hPa 0,0 l/m 18,1 km/h (3 Bft) W 270 0 min 0,000 mm 0,8 UV-I 178 W/m 1,3 C -4,0 C 40,2 km/h (6 Bft)
19.02.2020 12:19 3,7 C 6,7 C 5,0 C 4,4 C 4,4 C 84 % 0 lf 7 cb 80 cb 55 cb 14 cb 1021,2 hPa 0,0 l/m 16,6 km/h (3 Bft) W 267 0 min 0,000 mm 1,3 UV-I 234 W/m 1,3 C -3,3 C 27,4 km/h (4 Bft)
19.02.2020 12:17 3,8 C 6,7 C 5,0 C 4,4 C 4,4 C 85 % 0 lf 7 cb 80 cb 55 cb 14 cb 1021,2 hPa 0,0 l/m 15,1 km/h (3 Bft) W-NW 288 0 min 0,000 mm 1,0 UV-I 234 W/m 1,5 C -2,4 C 32,2 km/h (5 Bft)
19.02.2020 12:15 3,8 C 6,7 C 5,0 C 4,4 C 4,4 C 86 % 0 lf 7 cb 81 cb 55 cb 14 cb 1021,1 hPa 0,0 l/m 12,0 km/h (2 Bft) W-NW 294 0 min 0,000 mm 0,8 UV-I 199 W/m 1,7 C -0,6 C 27,4 km/h (4 Bft)
19.02.2020 12:13 3,7 C 6,7 C 5,0 C 4,4 C 4,4 C 85 % 0 lf 7 cb 81 cb 55 cb 14 cb 1021,1 hPa 0,0 l/m 11,4 km/h (2 Bft) W-NW 288 0 min 0,000 mm 0,6 UV-I 207 W/m 1,4 C -0,3 C 17,7 km/h (3 Bft)
19.02.2020 12:11 3,7 C 6,7 C 5,0 C 4,4 C 4,4 C 86 % 0 lf 7 cb 81 cb 55 cb 14 cb 1021,1 hPa 0,0 l/m 21,0 km/h (4 Bft) W 266 2 min 0,000 mm 0,6 UV-I 318 W/m 1,6 C -5,3 C 33,8 km/h (5 Bft)
19.02.2020 12:09 3,7 C 6,7 C 5,0 C 4,4 C 4,4 C 87 % 0 lf 7 cb 81 cb 55 cb 14 cb 1021,0 hPa 0,0 l/m 16,3 km/h (3 Bft) W 280 2 min 0,000 mm 0,8 UV-I 318 W/m 1,7 C -3,2 C 29,0 km/h (5 Bft)
19.02.2020 12:07 3,6 C 7,2 C 5,0 C 4,4 C 4,4 C 87 % 0 lf 7 cb 81 cb 55 cb 14 cb 1021,0 hPa 0,0 l/m 15,3 km/h (3 Bft) W 273 2 min 0,000 mm 1,2 UV-I 429 W/m 1,6 C -2,8 C 29,0 km/h (5 Bft)
19.02.2020 12:05 3,5 C 6,7 C 5,0 C 4,4 C 4,4 C 87 % 0 lf 7 cb 81 cb 55 cb 14 cb 1021,0 hPa 0,0 l/m 10,1 km/h (2 Bft) NW 317 2 min 0,000 mm 1,0 UV-I 295 W/m 1,5 C 0,3 C 20,9 km/h (4 Bft)
19.02.2020 12:03 3,4 C 6,1 C 5,0 C 4,4 C 4,4 C 87 % 0 lf 7 cb 81 cb 55 cb 14 cb 1020,9 hPa 0,0 l/m 16,2 km/h (3 Bft) W-NW 294 2 min 0,000 mm 0,9 UV-I 295 W/m 1,4 C -3,5 C 32,2 km/h (5 Bft)
19.02.2020 12:01 3,4 C 6,1 C 5,0 C 4,4 C 4,4 C 87 % 0 lf 7 cb 81 cb 55 cb 14 cb 1021,0 hPa 0,0 l/m 12,9 km/h (3 Bft) W 267 0 min 0,076 mm 1,0 UV-I 216 W/m 1,4 C -1,7 C 20,9 km/h (4 Bft)
19.02.2020 11:59 3,4 C 6,7 C 5,0 C 4,4 C 4,4 C 88 % 0 lf 7 cb 81 cb 55 cb 14 cb 1020,9 hPa 0,0 l/m 14,6 km/h (3 Bft) W-NW 291 2 min 0,000 mm 0,6 UV-I 450 W/m 1,6 C -2,6 C 30,6 km/h (5 Bft)
19.02.2020 11:57 3,3 C 5,6 C 4,4 C 4,4 C 4,4 C 88 % 0 lf 7 cb 80 cb 55 cb 14 cb 1020,9 hPa 0,0 l/m 13,5 km/h (3 Bft) W-NW 286 0 min 0,000 mm 1,1 UV-I 216 W/m 1,5 C -2,1 C 22,5 km/h (4 Bft)
19.02.2020 11:55 3,2 C 5,6 C 4,4 C 4,4 C 4,4 C 88 % 0 lf 7 cb 80 cb 55 cb 14 cb 1020,9 hPa 0,0 l/m 13,6 km/h (3 Bft) W-SW 239 0 min 0,000 mm 0,7 UV-I 216 W/m 1,4 C -2,3 C 27,4 km/h (4 Bft)
19.02.2020 11:53 3,2 C 5,6 C 4,4 C 4,4 C 4,4 C 88 % 0 lf 7 cb 80 cb 55 cb 14 cb 1020,8 hPa 0,0 l/m 11,8 km/h (2 Bft) W 279 0 min 0,000 mm 0,6 UV-I 206 W/m 1,4 C -1,2 C 20,9 km/h (4 Bft)
19.02.2020 11:51 3,1 C 5,0 C 4,4 C 4,4 C 4,4 C 88 % 0 lf 7 cb 80 cb 55 cb 14 cb 1020,9 hPa 0,0 l/m 15,8 km/h (3 Bft) W-NW 284 2 min 0,000 mm 1,0 UV-I 308 W/m 1,3 C -3,7 C 27,4 km/h (4 Bft)
19.02.2020 11:49 3,0 C 4,4 C 4,4 C 4,4 C 4,4 C 88 % 0 lf 7 cb 81 cb 56 cb 14 cb 1020,9 hPa 0,0 l/m 10,9 km/h (2 Bft) W 280 0 min 0,000 mm 0,8 UV-I 236 W/m 1,2 C -0,8 C 20,9 km/h (4 Bft)
19.02.2020 11:47 3,0 C 4,4 C 4,4 C 4,4 C 4,4 C 87 % 0 lf 7 cb 81 cb 56 cb 14 cb 1020,9 hPa 0,0 l/m 19,0 km/h (3 Bft) W-NW 284 0 min 0,000 mm 0,6 UV-I 142 W/m 1,1 C -5,3 C 29,0 km/h (5 Bft)
19.02.2020 11:45 3,1 C 3,9 C 4,4 C 4,4 C 4,4 C 87 % 0 lf 7 cb 81 cb 55 cb 14 cb 1020,9 hPa 0,0 l/m 13,8 km/h (3 Bft) W 281 0 min 0,000 mm 0,0 UV-I 88 W/m 1,2 C -2,5 C 32,2 km/h (5 Bft)
19.02.2020 11:43 3,1 C 4,4 C 4,4 C 4,4 C 4,4 C 88 % 0 lf 7 cb 81 cb 56 cb 14 cb 1020,9 hPa 0,0 l/m 13,8 km/h (3 Bft) W-NW 289 0 min 0,000 mm 0,0 UV-I 179 W/m 1,3 C -2,5 C 27,4 km/h (4 Bft)
19.02.2020 11:41 3,1 C 4,4 C 4,4 C 4,4 C 4,4 C 87 % 0 lf 7 cb 81 cb 56 cb 14 cb 1020,7 hPa 0,0 l/m 11,0 km/h (2 Bft) W 281 2 min 0,000 mm 0,9 UV-I 260 W/m 1,2 C -0,8 C 24,1 km/h (4 Bft)
19.02.2020 11:39 3,0 C 4,4 C 4,4 C 4,4 C 4,4 C 88 % 0 lf 7 cb 81 cb 56 cb 14 cb 1020,7 hPa 0,0 l/m 12,6 km/h (3 Bft) W-SW 252 0 min 0,000 mm 0,0 UV-I 134 W/m 1,2 C -1,9 C 22,5 km/h (4 Bft)
19.02.2020 11:37 2,9 C 4,4 C 4,4 C 4,4 C 4,4 C 87 % 0 lf 7 cb 81 cb 56 cb 14 cb 1020,7 hPa 0,0 l/m 19,7 km/h (3 Bft) W 279 0 min 0,000 mm 0,8 UV-I 153 W/m 1,0 C -5,8 C 29,0 km/h (5 Bft)
19.02.2020 11:35 2,9 C 4,4 C 4,4 C 4,4 C 4,4 C 88 % 0 lf 7 cb 81 cb 56 cb 14 cb 1020,7 hPa 0,0 l/m 15,4 km/h (3 Bft) W-NW 297 0 min 0,000 mm 0,8 UV-I 128 W/m 1,1 C -3,7 C 30,6 km/h (5 Bft)
19.02.2020 11:33 2,9 C 5,0 C 4,4 C 4,4 C 4,4 C 88 % 0 lf 7 cb 81 cb 56 cb 14 cb 1020,6 hPa 0,0 l/m 16,4 km/h (3 Bft) W-NW 295 0 min 0,000 mm 0,0 UV-I 155 W/m 1,1 C -4,2 C 30,6 km/h (5 Bft)
19.02.2020 11:31 2,9 C 5,6 C 4,4 C 4,4 C 4,4 C 88 % 0 lf 7 cb 81 cb 56 cb 14 cb 1020,7 hPa 0,0 l/m 13,0 km/h (3 Bft) W-NW 292 0 min 0,000 mm 0,0 UV-I 155 W/m 1,1 C -2,3 C 24,1 km/h (4 Bft)
19.02.2020 11:29 2,9 C 5,0 C 4,4 C 4,4 C 4,4 C 88 % 0 lf 7 cb 81 cb 56 cb 14 cb 1020,6 hPa 0,0 l/m 14,0 km/h (3 Bft) W-NW 292 2 min 0,000 mm 0,7 UV-I 250 W/m 1,1 C -2,9 C 19,3 km/h (3 Bft)
19.02.2020 11:27 2,9 C 5,0 C 4,4 C 4,4 C 4,4 C 88 % 0 lf 7 cb 81 cb 56 cb 14 cb 1020,6 hPa 0,0 l/m 14,3 km/h (3 Bft) W 272 0 min 0,000 mm 0,0 UV-I 218 W/m 1,1 C -3,1 C 22,5 km/h (4 Bft)
19.02.2020 11:25 2,9 C 5,0 C 4,4 C 4,4 C 4,4 C 88 % 0 lf 7 cb 81 cb 56 cb 14 cb 1020,6 hPa 0,0 l/m 13,0 km/h (3 Bft) W-NW 292 0 min 0,000 mm 0,5 UV-I 172 W/m 1,1 C -2,3 C 20,9 km/h (4 Bft)
19.02.2020 11:23 2,9 C 4,4 C 4,4 C 4,4 C 4,4 C 88 % 0 lf 7 cb 81 cb 56 cb 14 cb 1020,7 hPa 0,0 l/m 15,9 km/h (3 Bft) NW 306 0 min 0,000 mm 0,0 UV-I 172 W/m 1,1 C -4,0 C 27,4 km/h (4 Bft)
19.02.2020 11:21 2,9 C 4,4 C 4,4 C 4,4 C 4,4 C 87 % 0 lf 7 cb 81 cb 56 cb 14 cb 1020,6 hPa 0,0 l/m 11,9 km/h (2 Bft) W-NW 286 0 min 0,000 mm 0,0 UV-I 146 W/m 1,0 C -1,6 C 22,5 km/h (4 Bft)
19.02.2020 11:19 2,9 C 4,4 C 4,4 C 4,4 C 4,4 C 87 % 0 lf 7 cb 81 cb 56 cb 14 cb 1020,5 hPa 0,0 l/m 16,1 km/h (3 Bft) W 261 0 min 0,000 mm 0,0 UV-I 84 W/m 1,0 C -4,1 C 27,4 km/h (4 Bft)
19.02.2020 11:17 3,0 C 5,0 C 4,4 C 4,4 C 4,4 C 88 % 0 lf 7 cb 81 cb 56 cb 14 cb 1020,6 hPa 0,0 l/m 12,9 km/h (3 Bft) W 280 0 min 0,000 mm 0,0 UV-I 104 W/m 1,2 C -2,1 C 20,9 km/h (4 Bft)
19.02.2020 11:16 3,0 C 5,0 C 4,4 C 4,4 C 4,4 C 88 % 0 lf 7 cb 81 cb 56 cb 14 cb 1020,5 hPa 0,0 l/m 8,2 km/h (2 Bft) W-NW 282 0 min 0,000 mm 0,0 UV-I 132 W/m 1,2 C 1,3 C 19,3 km/h (3 Bft)
19.02.2020 11:15 3,1 C 5,0 C 4,4 C 4,4 C 4,4 C 88 % 0 lf 7 cb 81 cb 56 cb 14 cb 1020,5 hPa 0,0 l/m 15,0 km/h (3 Bft) W 276 0 min 0,000 mm 0,0 UV-I 160 W/m 1,3 C -3,2 C 22,5 km/h (4 Bft)
19.02.2020 11:13 3,0 C 5,6 C 4,4 C 4,4 C 4,4 C 88 % 0 lf 8 cb 81 cb 56 cb 14 cb 1020,4 hPa 0,0 l/m 10,6 km/h (2 Bft) W-NW 293 0 min 0,000 mm 0,0 UV-I 179 W/m 1,2 C -0,6 C 29,0 km/h (5 Bft)
19.02.2020 11:11 3,0 C 5,6 C 4,4 C 4,4 C 4,4 C 88 % 0 lf 8 cb 81 cb 56 cb 14 cb 1020,4 hPa 0,0 l/m 12,1 km/h (2 Bft) W 263 0 min 0,000 mm 0,0 UV-I 172 W/m 1,2 C -1,6 C 25,7 km/h (4 Bft)
19.02.2020 11:09 2,9 C 5,6 C 4,4 C 4,4 C 4,4 C 89 % 0 lf 8 cb 81 cb 56 cb 14 cb 1020,4 hPa 0,0 l/m 13,7 km/h (3 Bft) W-NW 286 0 min 0,000 mm 0,0 UV-I 178 W/m 1,3 C -2,7 C 27,4 km/h (4 Bft)
19.02.2020 11:07 2,9 C 5,6 C 4,4 C 4,4 C 4,4 C 89 % 0 lf 8 cb 81 cb 56 cb 14 cb 1020,4 hPa 0,0 l/m 17,1 km/h (3 Bft) W-NW 302 2 min 0,000 mm 0,0 UV-I 367 W/m 1,3 C -4,6 C 30,6 km/h (5 Bft)
19.02.2020 11:05 2,8 C 5,0 C 4,4 C 4,4 C 4,4 C 88 % 0 lf 8 cb 81 cb 56 cb 14 cb 1020,4 hPa 0,0 l/m 14,6 km/h (3 Bft) W 263 2 min 0,000 mm 0,5 UV-I 316 W/m 1,0 C -3,4 C 25,7 km/h (4 Bft)
19.02.2020 11:03 2,8 C 5,0 C 4,4 C 4,4 C 4,4 C 88 % 0 lf 8 cb 81 cb 56 cb 14 cb 1020,3 hPa 0,0 l/m 12,2 km/h (2 Bft) W 259 0 min 0,000 mm 0,0 UV-I 139 W/m 1,0 C -1,9 C 17,7 km/h (3 Bft)
19.02.2020 11:01 2,8 C 5,0 C 4,4 C 4,4 C 4,4 C 88 % 0 lf 8 cb 81 cb 56 cb 14 cb 1020,3 hPa 0,0 l/m 12,9 km/h (3 Bft) W-NW 285 0 min 0,076 mm 0,0 UV-I 142 W/m 1,0 C -2,4 C 25,7 km/h (4 Bft)
19.02.2020 10:59 2,8 C 5,0 C 4,4 C 4,4 C 4,4 C 88 % 0 lf 8 cb 81 cb 56 cb 14 cb 1020,2 hPa 0,0 l/m 15,9 km/h (3 Bft) W 260 0 min 0,000 mm 0,0 UV-I 169 W/m 1,0 C -4,1 C 24,1 km/h (4 Bft)
19.02.2020 10:57 2,8 C 5,0 C 4,4 C 4,4 C 4,4 C 88 % 0 lf 8 cb 81 cb 56 cb 14 cb 1020,2 hPa 0,0 l/m 18,0 km/h (3 Bft) W-NW 288 0 min 0,000 mm 0,0 UV-I 167 W/m 1,0 C -5,1 C 30,6 km/h (5 Bft)
19.02.2020 10:55 2,8 C 5,0 C 4,4 C 4,4 C 4,4 C 89 % 0 lf 8 cb 81 cb 56 cb 14 cb 1020,2 hPa 0,0 l/m 19,0 km/h (3 Bft) W 269 2 min 0,000 mm 0,5 UV-I 290 W/m 1,2 C -5,6 C 35,4 km/h (5 Bft)
19.02.2020 10:53 2,8 C 5,0 C 4,4 C 4,4 C 4,4 C 89 % 0 lf 8 cb 81 cb 56 cb 14 cb 1020,2 hPa 0,0 l/m 16,6 km/h (3 Bft) W-NW 284 0 min 0,000 mm 0,5 UV-I 204 W/m 1,2 C -4,4 C 24,1 km/h (4 Bft)
19.02.2020 10:52 2,8 C 5,0 C 4,4 C 4,4 C 4,4 C 89 % 0 lf 8 cb 81 cb 56 cb 14 cb 1020,2 hPa 0,0 l/m 14,2 km/h (3 Bft) W-NW 287 0 min 0,000 mm 0,0 UV-I 190 W/m 1,2 C -3,1 C 24,1 km/h (4 Bft)
19.02.2020 10:51 2,7 C 5,0 C 4,4 C 4,4 C 4,4 C 89 % 0 lf 8 cb 81 cb 56 cb 14 cb 1020,2 hPa 0,0 l/m 16,3 km/h (3 Bft) W 279 0 min 0,000 mm 0,0 UV-I 169 W/m 1,1 C -4,4 C 25,7 km/h (4 Bft)
19.02.2020 10:49 2,7 C 5,0 C 4,4 C 4,4 C 4,4 C 89 % 0 lf 8 cb 81 cb 56 cb 14 cb 1020,1 hPa 0,0 l/m 16,7 km/h (3 Bft) W-NW 287 0 min 0,000 mm 0,0 UV-I 176 W/m 1,1 C -4,6 C 32,2 km/h (5 Bft)
19.02.2020 10:47 2,7 C 5,0 C 3,9 C 4,4 C 4,4 C 90 % 0 lf 8 cb 80 cb 56 cb 14 cb 1020,1 hPa 0,0 l/m 13,4 km/h (3 Bft) W-NW 284 0 min 0,000 mm 0,0 UV-I 148 W/m 1,2 C -2,8 C 20,9 km/h (4 Bft)
19.02.2020 10:46 2,7 C 5,0 C 3,9 C 4,4 C 4,4 C 90 % 0 lf 8 cb 80 cb 56 cb 14 cb 1020,1 hPa 0,0 l/m 13,2 km/h (3 Bft) W 275 0 min 0,000 mm 0,0 UV-I 118 W/m 1,2 C -2,7 C 19,3 km/h (3 Bft)
19.02.2020 10:45 2,7 C 5,0 C 3,9 C 4,4 C 4,4 C 90 % 0 lf 8 cb 80 cb 56 cb 14 cb 1020,1 hPa 0,0 l/m 9,9 km/h (2 Bft) W-NW 287 0 min 0,000 mm 0,0 UV-I 139 W/m 1,2 C -0,4 C 25,7 km/h (4 Bft)
19.02.2020 10:43 2,6 C 5,0 C 3,9 C 4,4 C 4,4 C 90 % 0 lf 8 cb 80 cb 56 cb 14 cb 1020,1 hPa 0,0 l/m 15,0 km/h (3 Bft) W-NW 296 0 min 0,000 mm 0,0 UV-I 141 W/m 1,1 C -3,8 C 24,1 km/h (4 Bft)
19.02.2020 10:41 2,5 C 5,0 C 3,9 C 4,4 C 4,4 C 90 % 0 lf 8 cb 80 cb 56 cb 14 cb 1020,1 hPa 0,0 l/m 15,5 km/h (3 Bft) W-NW 284 2 min 0,000 mm 0,0 UV-I 218 W/m 1,0 C -4,2 C 35,4 km/h (5 Bft)
19.02.2020 10:39 2,5 C 4,4 C 3,9 C 4,4 C 4,4 C 90 % 0 lf 8 cb 80 cb 56 cb 14 cb 1020,1 hPa 0,0 l/m 15,1 km/h (3 Bft) W-NW 292 2 min 0,000 mm 0,0 UV-I 209 W/m 1,0 C -4,0 C 25,7 km/h (4 Bft)
19.02.2020 10:37 2,5 C 3,9 C 3,9 C 4,4 C 4,4 C 90 % 0 lf 8 cb 80 cb 56 cb 14 cb 1020,0 hPa 0,0 l/m 14,4 km/h (3 Bft) W 269 0 min 0,000 mm 0,0 UV-I 169 W/m 1,0 C -3,6 C 27,4 km/h (4 Bft)
19.02.2020 10:35 2,6 C 4,4 C 3,9 C 4,4 C 4,4 C 90 % 0 lf 8 cb 80 cb 56 cb 14 cb 1020,0 hPa 0,0 l/m 11,4 km/h (2 Bft) W 261 0 min 0,000 mm 0,0 UV-I 121 W/m 1,1 C -1,6 C 20,9 km/h (4 Bft)
19.02.2020 10:33 2,6 C 4,4 C 3,9 C 4,4 C 4,4 C 90 % 0 lf 8 cb 80 cb 56 cb 14 cb 1020,0 hPa 0,0 l/m 14,6 km/h (3 Bft) W-NW 287 0 min 0,000 mm 0,0 UV-I 121 W/m 1,1 C -3,6 C 24,1 km/h (4 Bft)
19.02.2020 10:31 2,6 C 4,4 C 3,9 C 4,4 C 4,4 C 91 % 0 lf 8 cb 80 cb 56 cb 14 cb 1020,0 hPa 0,0 l/m 15,7 km/h (3 Bft) W-NW 298 0 min 0,000 mm 0,0 UV-I 134 W/m 1,3 C -4,2 C 38,6 km/h (5 Bft)
19.02.2020 10:29 2,6 C 4,4 C 3,9 C 4,4 C 4,4 C 91 % 0 lf 8 cb 80 cb 56 cb 14 cb 1020,0 hPa 0,0 l/m 13,0 km/h (3 Bft) W-NW 298 0 min 0,000 mm 0,0 UV-I 185 W/m 1,3 C -2,7 C 29,0 km/h (5 Bft)
19.02.2020 10:27 2,6 C 5,0 C 3,9 C 3,9 C 4,4 C 91 % 0 lf 8 cb 80 cb 55 cb 14 cb 1019,9 hPa 0,0 l/m 10,6 km/h (2 Bft) W-NW 286 2 min 0,000 mm 0,0 UV-I 243 W/m 1,3 C -1,0 C 20,9 km/h (4 Bft)
19.02.2020 10:25 2,6 C 4,4 C 3,9 C 3,9 C 4,4 C 91 % 0 lf 8 cb 80 cb 55 cb 14 cb 1019,9 hPa 0,0 l/m 15,1 km/h (3 Bft) W-NW 282 0 min 0,000 mm 0,0 UV-I 158 W/m 1,3 C -3,9 C 29,0 km/h (5 Bft)
19.02.2020 10:23 2,6 C 5,0 C 3,9 C 3,9 C 4,4 C 91 % 0 lf 8 cb 80 cb 55 cb 14 cb 1019,9 hPa 0,0 l/m 17,1 km/h (3 Bft) W 259 0 min 0,000 mm 0,0 UV-I 169 W/m 1,3 C -4,9 C 32,2 km/h (5 Bft)
19.02.2020 10:21 2,5 C 5,0 C 3,9 C 3,9 C 4,4 C 92 % 0 lf 8 cb 80 cb 55 cb 14 cb 1019,8 hPa 0,0 l/m 11,0 km/h (2 Bft) W 261 0 min 0,000 mm 0,0 UV-I 178 W/m 1,3 C -1,4 C 20,9 km/h (4 Bft)
19.02.2020 10:19 2,4 C 5,0 C 3,9 C 3,9 C 4,4 C 92 % 0 lf 8 cb 81 cb 55 cb 14 cb 1019,8 hPa 0,0 l/m 14,4 km/h (3 Bft) W-NW 296 0 min 0,000 mm 0,0 UV-I 155 W/m 1,2 C -3,7 C 24,1 km/h (4 Bft)
19.02.2020 10:17 2,4 C 5,0 C 3,9 C 3,9 C 4,4 C 92 % 0 lf 8 cb 81 cb 55 cb 14 cb 1019,8 hPa 0,0 l/m 13,5 km/h (3 Bft) W 281 2 min 0,000 mm 0,0 UV-I 267 W/m 1,2 C -3,2 C 20,9 km/h (4 Bft)
19.02.2020 10:15 2,3 C 4,4 C 3,9 C 3,9 C 4,4 C 92 % 0 lf 8 cb 81 cb 55 cb 14 cb 1019,7 hPa 0,0 l/m 13,2 km/h (3 Bft) W 275 2 min 0,000 mm 0,0 UV-I 220 W/m 1,1 C -3,1 C 22,5 km/h (4 Bft)
19.02.2020 10:13 2,2 C 3,9 C 3,9 C 3,9 C 4,4 C 92 % 0 lf 8 cb 81 cb 55 cb 14 cb 1019,7 hPa 0,0 l/m 13,5 km/h (3 Bft) W 270 2 min 0,000 mm 0,0 UV-I 211 W/m 1,0 C -3,4 C 24,1 km/h (4 Bft)
19.02.2020 10:11 2,2 C 3,9 C 3,9 C 3,9 C 4,4 C 92 % 0 lf 8 cb 81 cb 56 cb 14 cb 1019,7 hPa 0,0 l/m 14,9 km/h (3 Bft) W 268 0 min 0,000 mm 0,0 UV-I 153 W/m 1,0 C -4,3 C 25,7 km/h (4 Bft)
19.02.2020 10:09 2,2 C 3,9 C 3,9 C 3,9 C 4,4 C 92 % 0 lf 8 cb 81 cb 56 cb 14 cb 1019,7 hPa 0,0 l/m 14,8 km/h (3 Bft) W 260 0 min 0,000 mm 0,0 UV-I 130 W/m 1,0 C -4,2 C 24,1 km/h (4 Bft)
19.02.2020 10:07 2,2 C 3,3 C 3,9 C 3,9 C 4,4 C 92 % 0 lf 8 cb 81 cb 56 cb 14 cb 1019,7 hPa 0,0 l/m 11,1 km/h (2 Bft) W 266 0 min 0,000 mm 0,0 UV-I 146 W/m 1,0 C -1,8 C 20,9 km/h (4 Bft)
19.02.2020 10:05 2,2 C 3,3 C 3,9 C 3,9 C 4,4 C 92 % 0 lf 8 cb 81 cb 56 cb 14 cb 1019,7 hPa 0,0 l/m 9,0 km/h (2 Bft) W 266 0 min 0,000 mm 0,0 UV-I 109 W/m 1,0 C -0,2 C 19,3 km/h (3 Bft)
19.02.2020 10:03 2,2 C 3,3 C 3,9 C 3,9 C 4,4 C 92 % 0 lf 8 cb 81 cb 56 cb 14 cb 1019,7 hPa 0,0 l/m 15,0 km/h (3 Bft) W 264 0 min 0,000 mm 0,0 UV-I 81 W/m 1,0 C -4,3 C 27,4 km/h (4 Bft)
19.02.2020 10:01 2,2 C 3,3 C 3,9 C 3,9 C 4,4 C 92 % 0 lf 8 cb 81 cb 56 cb 14 cb 1019,6 hPa 0,0 l/m 10,7 km/h (2 Bft) W 273 0 min 0,051 mm 0,0 UV-I 97 W/m 1,0 C -1,6 C 17,7 km/h (3 Bft)
19.02.2020 09:59 2,2 C 3,3 C 3,9 C 3,9 C 4,4 C 92 % 0 lf 8 cb 81 cb 56 cb 14 cb 1019,6 hPa 0,0 l/m 9,4 km/h (2 Bft) W 277 0 min 0,000 mm 0,0 UV-I 100 W/m 1,0 C -0,5 C 14,5 km/h (3 Bft)
19.02.2020 09:58 2,2 C 3,3 C 3,9 C 3,9 C 4,4 C 92 % 0 lf 8 cb 81 cb 56 cb 14 cb 1019,6 hPa 0,0 l/m 10,9 km/h (2 Bft) W-NW 285 0 min 0,000 mm 0,0 UV-I 83 W/m 1,0 C -1,7 C 20,9 km/h (4 Bft)
19.02.2020 09:57 2,1 C 3,3 C 3,9 C 3,9 C 4,4 C 92 % 0 lf 8 cb 81 cb 56 cb 14 cb 1019,5 hPa 0,0 l/m 10,6 km/h (2 Bft) W-SW 246 0 min 0,000 mm 0,0 UV-I 83 W/m 0,9 C -1,6 C 20,9 km/h (4 Bft)
19.02.2020 09:55 2,1 C 3,9 C 3,9 C 3,9 C 4,4 C 92 % 0 lf 9 cb 81 cb 56 cb 14 cb 1019,5 hPa 0,0 l/m 14,7 km/h (3 Bft) W 281 0 min 0,000 mm 0,0 UV-I 70 W/m 0,9 C -4,3 C 29,0 km/h (5 Bft)
19.02.2020 09:53 2,1 C 3,9 C 3,9 C 3,9 C 4,4 C 92 % 0 lf 9 cb 81 cb 56 cb 14 cb 1019,5 hPa 0,0 l/m 16,1 km/h (3 Bft) W 267 0 min 0,000 mm 0,0 UV-I 109 W/m 0,9 C -5,0 C 27,4 km/h (4 Bft)
19.02.2020 09:51 2,1 C 3,9 C 3,9 C 3,9 C 4,4 C 92 % 0 lf 9 cb 81 cb 56 cb 14 cb 1019,5 hPa 0,0 l/m 13,3 km/h (3 Bft) W-SW 239 0 min 0,000 mm 0,0 UV-I 102 W/m 0,9 C -3,4 C 25,7 km/h (4 Bft)
19.02.2020 09:49 2,2 C 4,4 C 3,9 C 3,9 C 4,4 C 92 % 1 lf 9 cb 81 cb 56 cb 14 cb 1019,4 hPa 0,0 l/m 12,9 km/h (3 Bft) W 274 0 min 0,000 mm 0,0 UV-I 109 W/m 1,0 C -3,1 C 27,4 km/h (4 Bft)
19.02.2020 09:47 2,2 C 5,0 C 3,9 C 3,9 C 4,4 C 93 % 1 lf 9 cb 81 cb 56 cb 14 cb 1019,4 hPa 0,0 l/m 15,8 km/h (3 Bft) W-NW 283 0 min 0,000 mm 0,0 UV-I 132 W/m 1,2 C -4,8 C 30,6 km/h (5 Bft)
19.02.2020 09:45 2,1 C 5,6 C 3,9 C 3,9 C 4,4 C 93 % 2 lf 9 cb 81 cb 56 cb 14 cb 1019,4 hPa 0,0 l/m 11,3 km/h (2 Bft) W 271 0 min 0,000 mm 0,0 UV-I 111 W/m 1,1 C -2,1 C 24,1 km/h (4 Bft)
19.02.2020 09:43 2,1 C 5,0 C 3,9 C 3,9 C 4,4 C 93 % 2 lf 9 cb 81 cb 56 cb 14 cb 1019,4 hPa 0,0 l/m 11,7 km/h (2 Bft) W 259 0 min 0,000 mm 0,0 UV-I 125 W/m 1,1 C -2,4 C 20,9 km/h (4 Bft)
19.02.2020 09:41 2,1 C 4,4 C 3,9 C 3,9 C 4,4 C 93 % 2 lf 9 cb 81 cb 56 cb 14 cb 1019,3 hPa 0,0 l/m 15,3 km/h (3 Bft) W-SW 251 0 min 0,000 mm 0,0 UV-I 123 W/m 1,1 C -4,6 C 32,2 km/h (5 Bft)
19.02.2020 09:39 2,1 C 4,4 C 3,3 C 3,9 C 4,4 C 93 % 3 lf 9 cb 81 cb 56 cb 14 cb 1019,3 hPa 0,0 l/m 14,0 km/h (3 Bft) W-SW 254 0 min 0,000 mm 0,0 UV-I 134 W/m 1,1 C -3,9 C 22,5 km/h (4 Bft)
19.02.2020 09:37 2,1 C 4,4 C 3,3 C 3,9 C 4,4 C 93 % 3 lf 9 cb 81 cb 56 cb 14 cb 1019,3 hPa 0,0 l/m 14,2 km/h (3 Bft) W-NW 296 0 min 0,000 mm 0,0 UV-I 114 W/m 1,1 C -4,0 C 27,4 km/h (4 Bft)
19.02.2020 09:36 2,1 C 4,4 C 3,3 C 3,9 C 4,4 C 93 % 3 lf 9 cb 81 cb 56 cb 14 cb 1019,3 hPa 0,0 l/m 15,2 km/h (3 Bft) W 273 0 min 0,000 mm 0,0 UV-I 90 W/m 1,1 C -4,5 C 24,1 km/h (4 Bft)
19.02.2020 09:35 2,1 C 5,0 C 3,3 C 3,9 C 4,4 C 93 % 3 lf 9 cb 81 cb 56 cb 14 cb 1019,2 hPa 0,0 l/m 10,6 km/h (2 Bft) W-SW 244 0 min 0,000 mm 0,0 UV-I 120 W/m 1,1 C -1,6 C 22,5 km/h (4 Bft)
19.02.2020 09:33 2,1 C 4,4 C 3,3 C 3,9 C 4,4 C 93 % 4 lf 9 cb 81 cb 56 cb 14 cb 1019,2 hPa 0,0 l/m 10,1 km/h (2 Bft) W 273 2 min 0,000 mm 0,0 UV-I 207 W/m 1,1 C -1,2 C 19,3 km/h (3 Bft)
19.02.2020 09:31 2,1 C 4,4 C 3,3 C 3,9 C 4,4 C 93 % 4 lf 9 cb 81 cb 56 cb 14 cb 1019,3 hPa 0,0 l/m 10,4 km/h (2 Bft) W 269 2 min 0,000 mm 0,0 UV-I 149 W/m 1,1 C -1,4 C 29,0 km/h (5 Bft)
19.02.2020 09:29 2,0 C 4,4 C 3,3 C 3,9 C 4,4 C 94 % 4 lf 9 cb 81 cb 56 cb 14 cb 1019,3 hPa 0,0 l/m 9,1 km/h (2 Bft) W 263 2 min 0,000 mm 0,0 UV-I 218 W/m 1,1 C -0,5 C 19,3 km/h (3 Bft)
19.02.2020 09:27 1,9 C 3,9 C 3,3 C 3,9 C 4,4 C 93 % 6 lf 9 cb 81 cb 56 cb 14 cb 1019,2 hPa 0,0 l/m 14,5 km/h (3 Bft) W 279 2 min 0,000 mm 0,0 UV-I 188 W/m 0,9 C -4,4 C 27,4 km/h (4 Bft)
19.02.2020 09:25 1,8 C 3,3 C 3,3 C 3,9 C 4,4 C 93 % 7 lf 9 cb 81 cb 56 cb 14 cb 1019,2 hPa 0,0 l/m 11,9 km/h (2 Bft) W-NW 301 2 min 0,000 mm 0,0 UV-I 144 W/m 0,8 C -2,9 C 22,5 km/h (4 Bft)
19.02.2020 09:23 1,8 C 3,3 C 3,3 C 3,9 C 4,4 C 93 % 7 lf 9 cb 81 cb 56 cb 14 cb 1019,2 hPa 0,0 l/m 11,6 km/h (2 Bft) W-NW 302 2 min 0,000 mm 0,0 UV-I 141 W/m 0,8 C -2,7 C 20,9 km/h (4 Bft)
19.02.2020 09:21 1,8 C 2,8 C 3,3 C 3,9 C 4,4 C 93 % 8 lf 9 cb 81 cb 56 cb 14 cb 1019,2 hPa 0,0 l/m 9,5 km/h (2 Bft) W-NW 294 0 min 0,000 mm 0,0 UV-I 107 W/m 0,8 C -1,1 C 24,1 km/h (4 Bft)
19.02.2020 09:19 1,8 C 2,8 C 3,3 C 3,9 C 4,4 C 93 % 8 lf 9 cb 81 cb 56 cb 14 cb 1019,2 hPa 0,0 l/m 13,5 km/h (3 Bft) W 262 2 min 0,000 mm 0,0 UV-I 127 W/m 0,8 C -3,9 C 25,7 km/h (4 Bft)
19.02.2020 09:17 1,8 C 2,8 C 3,3 C 3,9 C 4,4 C 93 % 9 lf 9 cb 81 cb 56 cb 14 cb 1019,2 hPa 0,0 l/m 15,0 km/h (3 Bft) W-NW 298 0 min 0,000 mm 0,0 UV-I 63 W/m 0,8 C -4,8 C 30,6 km/h (5 Bft)
19.02.2020 09:15 1,7 C 2,8 C 3,3 C 3,9 C 4,4 C 93 % 9 lf 9 cb 81 cb 56 cb 14 cb 1019,2 hPa 0,0 l/m 9,7 km/h (2 Bft) W-NW 292 0 min 0,000 mm 0,0 UV-I 60 W/m 0,7 C -1,3 C 16,1 km/h (3 Bft)
19.02.2020 09:13 1,7 C 2,2 C 3,3 C 3,9 C 4,4 C 93 % 10 lf 9 cb 81 cb 56 cb 14 cb 1019,1 hPa 0,0 l/m 10,1 km/h (2 Bft) W-NW 286 2 min 0,000 mm 0,0 UV-I 146 W/m 0,7 C -1,7 C 17,7 km/h (3 Bft)
19.02.2020 09:11 1,7 C 1,7 C 3,3 C 3,9 C 4,4 C 93 % 10 lf 9 cb 81 cb 56 cb 14 cb 1019,0 hPa 0,0 l/m 13,3 km/h (3 Bft) W-NW 298 0 min 0,000 mm 0,0 UV-I 88 W/m 0,7 C -3,9 C 24,1 km/h (4 Bft)
19.02.2020 09:09 1,8 C 1,7 C 3,3 C 3,9 C 4,4 C 93 % 10 lf 9 cb 81 cb 56 cb 14 cb 1019,1 hPa 0,0 l/m 19,9 km/h (4 Bft) W-SW 255 0 min 0,000 mm 0,0 UV-I 39 W/m 0,8 C -7,3 C 35,4 km/h (5 Bft)
19.02.2020 09:07 1,8 C 2,2 C 3,3 C 3,9 C 4,4 C 93 % 10 lf 10 cb 81 cb 56 cb 14 cb 1019,2 hPa 0,0 l/m 13,9 km/h (3 Bft) W-NW 286 0 min 0,000 mm 0,0 UV-I 33 W/m 0,8 C -4,2 C 32,2 km/h (5 Bft)
19.02.2020 09:05 1,8 C 2,2 C 3,3 C 3,9 C 4,4 C 93 % 11 lf 10 cb 81 cb 56 cb 14 cb 1019,1 hPa 0,0 l/m 14,2 km/h (3 Bft) W 277 0 min 0,000 mm 0,0 UV-I 26 W/m 0,8 C -4,3 C 30,6 km/h (5 Bft)
19.02.2020 09:03 1,8 C 2,2 C 3,3 C 3,9 C 4,4 C 93 % 11 lf 10 cb 81 cb 56 cb 14 cb 1019,0 hPa 0,0 l/m 8,5 km/h (2 Bft) W 281 0 min 0,000 mm 0,0 UV-I 21 W/m 0,8 C -0,2 C 24,1 km/h (4 Bft)
19.02.2020 09:01 1,8 C 2,8 C 3,3 C 3,9 C 4,4 C 93 % 11 lf 10 cb 81 cb 56 cb 14 cb 1019,0 hPa 0,0 l/m 12,5 km/h (3 Bft) W-NW 302 0 min 0,026 mm 0,0 UV-I 28 W/m 0,8 C -3,3 C 20,9 km/h (4 Bft)
19.02.2020 08:59 1,8 C 3,3 C 3,3 C 3,9 C 4,4 C 94 % 11 lf 10 cb 81 cb 56 cb 14 cb 1018,9 hPa 0,0 l/m 12,3 km/h (3 Bft) W 280 0 min 0,000 mm 0,0 UV-I 60 W/m 0,9 C -3,1 C 19,3 km/h (3 Bft)
19.02.2020 08:57 1,8 C 3,3 C 3,3 C 3,9 C 4,4 C 93 % 12 lf 10 cb 81 cb 56 cb 14 cb 1019,0 hPa 0,0 l/m 13,5 km/h (3 Bft) W 277 0 min 0,000 mm 0,0 UV-I 81 W/m 0,8 C -3,9 C 24,1 km/h (4 Bft)
19.02.2020 08:55 1,8 C 2,2 C 3,3 C 3,9 C 4,4 C 93 % 12 lf 10 cb 81 cb 56 cb 14 cb 1018,8 hPa 0,0 l/m 9,8 km/h (2 Bft) W-NW 290 2 min 0,000 mm 0,0 UV-I 100 W/m 0,8 C -1,3 C 17,7 km/h (3 Bft)
19.02.2020 08:53 1,8 C 1,7 C 3,3 C 3,9 C 4,4 C 93 % 12 lf 10 cb 81 cb 56 cb 14 cb 1018,9 hPa 0,0 l/m 17,2 km/h (3 Bft) W-NW 297 1 min 0,000 mm 0,0 UV-I 113 W/m 0,8 C -6,0 C 25,7 km/h (4 Bft)
19.02.2020 08:52 1,8 C 1,7 C 3,3 C 3,9 C 4,4 C 93 % 13 lf 10 cb 81 cb 56 cb 14 cb 1018,8 hPa 0,0 l/m 21,0 km/h (4 Bft) W-NW 295 0 min 0,000 mm 0,0 UV-I 76 W/m 0,8 C -7,7 C 27,4 km/h (4 Bft)
19.02.2020 08:51 1,8 C 1,7 C 3,3 C 3,9 C 4,4 C 93 % 13 lf 10 cb 81 cb 56 cb 14 cb 1018,7 hPa 0,0 l/m 14,6 km/h (3 Bft) W-NW 292 0 min 0,000 mm 0,0 UV-I 65 W/m 0,8 C -4,6 C 24,1 km/h (4 Bft)
19.02.2020 08:49 1,8 C 2,2 C 3,3 C 3,9 C 4,4 C 94 % 13 lf 10 cb 81 cb 56 cb 14 cb 1018,8 hPa 0,0 l/m 11,0 km/h (2 Bft) W-NW 303 0 min 0,000 mm 0,0 UV-I 23 W/m 0,9 C -2,2 C 24,1 km/h (4 Bft)
19.02.2020 08:47 1,8 C 2,2 C 3,3 C 3,9 C 4,4 C 94 % 13 lf 10 cb 81 cb 56 cb 14 cb 1018,7 hPa 0,0 l/m 11,4 km/h (2 Bft) W 274 0 min 0,000 mm 0,0 UV-I 14 W/m 0,9 C -2,5 C 22,5 km/h (4 Bft)
19.02.2020 08:45 1,8 C 2,8 C 3,3 C 3,9 C 4,4 C 94 % 13 lf 10 cb 81 cb 56 cb 14 cb 1018,6 hPa 0,0 l/m 11,0 km/h (2 Bft) W-NW 290 0 min 0,000 mm 0,0 UV-I 40 W/m 0,9 C -2,2 C 22,5 km/h (4 Bft)
19.02.2020 08:43 1,7 C 2,2 C 3,3 C 3,9 C 4,4 C 94 % 13 lf 10 cb 81 cb 56 cb 14 cb 1018,6 hPa 0,0 l/m 5,5 km/h (1 Bft) W-NW 288 2 min 0,000 mm 0,0 UV-I 97 W/m 0,8 C 1,7 C 14,5 km/h (3 Bft)
19.02.2020 08:41 1,7 C 2,2 C 3,3 C 3,9 C 4,4 C 93 % 13 lf 10 cb 81 cb 56 cb 14 cb 1018,6 hPa 0,0 l/m 11,2 km/h (2 Bft) W-NW 283 2 min 0,000 mm 0,0 UV-I 95 W/m 0,7 C -2,5 C 25,7 km/h (4 Bft)
19.02.2020 08:39 1,7 C 1,7 C 2,8 C 3,9 C 4,4 C 94 % 13 lf 10 cb 80 cb 56 cb 14 cb 1018,6 hPa 0,0 l/m 13,3 km/h (3 Bft) NW 311 0 min 0,000 mm 0,0 UV-I 62 W/m 0,8 C -3,9 C 24,1 km/h (4 Bft)
19.02.2020 08:37 1,7 C 1,7 C 2,8 C 3,9 C 4,4 C 94 % 14 lf 10 cb 80 cb 56 cb 14 cb 1018,5 hPa 0,0 l/m 15,3 km/h (3 Bft) W-NW 289 0 min 0,000 mm 0,0 UV-I 33 W/m 0,8 C -5,1 C 25,7 km/h (4 Bft)
19.02.2020 08:35 1,7 C 1,7 C 2,8 C 3,9 C 4,4 C 94 % 14 lf 10 cb 80 cb 56 cb 14 cb 1018,5 hPa 0,0 l/m 9,4 km/h (2 Bft) W-NW 299 0 min 0,000 mm 0,0 UV-I 23 W/m 0,8 C -1,1 C 17,7 km/h (3 Bft)
19.02.2020 08:33 1,7 C 1,7 C 2,8 C 3,9 C 4,4 C 94 % 14 lf 10 cb 80 cb 56 cb 14 cb 1018,6 hPa 0,0 l/m 21,5 km/h (4 Bft) W-NW 296 0 min 0,000 mm 0,0 UV-I 26 W/m 0,8 C -8,1 C 40,2 km/h (6 Bft)
19.02.2020 08:31 1,7 C 1,7 C 2,8 C 3,9 C 4,4 C 94 % 14 lf 11 cb 80 cb 56 cb 14 cb 1018,6 hPa 0,0 l/m 14,4 km/h (3 Bft) W-NW 289 0 min 0,000 mm 0,0 UV-I 16 W/m 0,8 C -4,6 C 25,7 km/h (4 Bft)
19.02.2020 08:29 1,7 C 1,7 C 2,8 C 3,9 C 4,4 C 94 % 14 lf 11 cb 80 cb 56 cb 14 cb 1018,5 hPa 0,0 l/m 18,8 km/h (3 Bft) NW 304 0 min 0,000 mm 0,0 UV-I 12 W/m 0,8 C -6,9 C 30,6 km/h (5 Bft)
19.02.2020 08:27 1,8 C 1,7 C 2,8 C 3,9 C 4,4 C 94 % 14 lf 11 cb 80 cb 56 cb 14 cb 1018,4 hPa 0,0 l/m 14,6 km/h (3 Bft) W-NW 296 0 min 0,000 mm 0,0 UV-I 14 W/m 0,9 C -4,6 C 29,0 km/h (5 Bft)
19.02.2020 08:25 1,8 C 1,7 C 2,8 C 3,9 C 4,4 C 94 % 14 lf 11 cb 80 cb 56 cb 14 cb 1018,4 hPa 0,0 l/m 19,4 km/h (3 Bft) W-NW 298 0 min 0,000 mm 0,0 UV-I 9 W/m 0,9 C -7,0 C 27,4 km/h (4 Bft)
19.02.2020 08:23 1,8 C 1,7 C 2,8 C 3,9 C 4,4 C 94 % 15 lf 11 cb 80 cb 56 cb 14 cb 1018,3 hPa 0,0 l/m 10,9 km/h (2 Bft) W 280 0 min 0,000 mm 0,0 UV-I 7 W/m 0,9 C -2,1 C 30,6 km/h (5 Bft)
19.02.2020 08:21 1,8 C 1,7 C 2,8 C 3,9 C 4,4 C 93 % 15 lf 11 cb 80 cb 56 cb 14 cb 1018,2 hPa 0,0 l/m 10,2 km/h (2 Bft) W 262 0 min 0,000 mm 0,0 UV-I 9 W/m 0,8 C -1,6 C 27,4 km/h (4 Bft)
19.02.2020 08:19 1,8 C 1,7 C 2,8 C 3,9 C 4,4 C 93 % 15 lf 11 cb 80 cb 56 cb 14 cb 1018,3 hPa 0,0 l/m 5,9 km/h (2 Bft) W-NW 283 0 min 0,000 mm 0,0 UV-I 5 W/m 0,8 C 1,8 C 14,5 km/h (3 Bft)
19.02.2020 08:17 1,8 C 1,7 C 2,8 C 3,9 C 4,4 C 93 % 14 lf 11 cb 80 cb 56 cb 14 cb 1018,2 hPa 0,0 l/m 11,3 km/h (2 Bft) W-SW 248 0 min 0,000 mm 0,0 UV-I 5 W/m 0,8 C -2,4 C 25,7 km/h (4 Bft)
19.02.2020 08:15 1,8 C 1,7 C 2,8 C 3,9 C 4,4 C 94 % 13 lf 11 cb 80 cb 56 cb 14 cb 1018,1 hPa 0,0 l/m 9,3 km/h (2 Bft) W 279 0 min 0,000 mm 0,0 UV-I 12 W/m 0,9 C -0,9 C 22,5 km/h (4 Bft)
19.02.2020 08:13 1,8 C 1,7 C 2,8 C 3,9 C 4,4 C 94 % 12 lf 11 cb 80 cb 56 cb 14 cb 1018,1 hPa 0,0 l/m 12,9 km/h (3 Bft) W 270 0 min 0,000 mm 0,0 UV-I 25 W/m 0,9 C -3,5 C 24,1 km/h (4 Bft)
19.02.2020 08:11 1,9 C 1,7 C 2,8 C 3,9 C 4,4 C 93 % 12 lf 11 cb 80 cb 56 cb 14 cb 1018,0 hPa 0,0 l/m 9,9 km/h (2 Bft) W 263 0 min 0,000 mm 0,0 UV-I 21 W/m 0,9 C -1,3 C 20,9 km/h (4 Bft)
19.02.2020 08:09 1,9 C 1,7 C 2,8 C 3,9 C 4,4 C 93 % 12 lf 11 cb 80 cb 56 cb 14 cb 1018,0 hPa 0,0 l/m 11,5 km/h (2 Bft) W 281 0 min 0,000 mm 0,0 UV-I 11 W/m 0,9 C -2,5 C 24,1 km/h (4 Bft)
19.02.2020 08:07 1,9 C 1,7 C 2,8 C 3,9 C 4,4 C 93 % 12 lf 11 cb 80 cb 56 cb 14 cb 1018,0 hPa 0,0 l/m 10,6 km/h (2 Bft) W-NW 284 0 min 0,000 mm 0,0 UV-I 5 W/m 0,9 C -1,8 C 20,9 km/h (4 Bft)
19.02.2020 08:05 1,9 C 1,7 C 2,8 C 3,9 C 4,4 C 93 % 13 lf 12 cb 80 cb 56 cb 14 cb 1018,0 hPa 0,0 l/m 9,6 km/h (2 Bft) W 275 0 min 0,000 mm 0,0 UV-I 0 W/m 0,9 C -1,0 C 16,1 km/h (3 Bft)
19.02.2020 08:03 1,9 C 1,7 C 2,8 C 3,9 C 4,4 C 93 % 13 lf 12 cb 80 cb 56 cb 14 cb 1018,0 hPa 0,0 l/m 10,5 km/h (2 Bft) W-NW 288 0 min 0,000 mm 0,0 UV-I 5 W/m 0,9 C -1,7 C 20,9 km/h (4 Bft)
19.02.2020 08:01 1,9 C 1,7 C 2,8 C 3,9 C 4,4 C 93 % 12 lf 12 cb 80 cb 56 cb 14 cb 1017,9 hPa 0,0 l/m 9,2 km/h (2 Bft) W-NW 294 0 min 0,000 mm 0,0 UV-I 0 W/m 0,9 C -0,7 C 22,5 km/h (4 Bft)
19.02.2020 07:59 1,9 C 1,7 C 2,8 C 3,9 C 4,4 C 93 % 12 lf 12 cb 80 cb 56 cb 14 cb 1017,8 hPa 0,0 l/m 14,6 km/h (3 Bft) W-NW 285 0 min 0,000 mm 0,0 UV-I 0 W/m 0,9 C -4,4 C 24,1 km/h (4 Bft)
19.02.2020 07:57 1,9 C 1,1 C 2,8 C 3,9 C 4,4 C 93 % 12 lf 12 cb 80 cb 56 cb 14 cb 1017,7 hPa 0,0 l/m 16,6 km/h (3 Bft) W 278 0 min 0,000 mm 0,0 UV-I 0 W/m 0,9 C -5,6 C 35,4 km/h (5 Bft)
19.02.2020 07:55 1,9 C 1,1 C 2,8 C 3,9 C 4,4 C 93 % 13 lf 12 cb 80 cb 56 cb 14 cb 1017,7 hPa 0,0 l/m 15,0 km/h (3 Bft) W 281 0 min 0,000 mm 0,0 UV-I 5 W/m 0,9 C -4,7 C 25,7 km/h (4 Bft)
19.02.2020 07:53 1,9 C 1,1 C 2,8 C 3,9 C 4,4 C 93 % 13 lf 12 cb 80 cb 55 cb 14 cb 1017,6 hPa 0,0 l/m 16,9 km/h (3 Bft) W-NW 298 0 min 0,000 mm 0,0 UV-I 5 W/m 0,9 C -5,7 C 25,7 km/h (4 Bft)
19.02.2020 07:51 2,0 C 1,1 C 2,8 C 3,9 C 4,4 C 93 % 13 lf 12 cb 80 cb 56 cb 14 cb 1017,6 hPa 0,0 l/m 16,2 km/h (3 Bft) W-NW 299 0 min 0,000 mm 0,0 UV-I 0 W/m 1,0 C -5,2 C 29,0 km/h (5 Bft)
19.02.2020 07:49 2,0 C 1,1 C 2,8 C 3,9 C 4,4 C 93 % 13 lf 12 cb 80 cb 55 cb 14 cb 1017,5 hPa 0,0 l/m 11,8 km/h (2 Bft) W-NW 290 0 min 0,000 mm 0,0 UV-I 0 W/m 1,0 C -2,6 C 20,9 km/h (4 Bft)
19.02.2020 07:47 2,0 C 1,1 C 2,8 C 3,9 C 4,4 C 93 % 13 lf 12 cb 80 cb 56 cb 14 cb 1017,6 hPa 0,0 l/m 12,4 km/h (3 Bft) W-NW 290 0 min 0,000 mm 0,0 UV-I 0 W/m 1,0 C -3,0 C 22,5 km/h (4 Bft)
19.02.2020 07:45 2,0 C 1,1 C 2,8 C 3,9 C 4,4 C 93 % 13 lf 12 cb 80 cb 55 cb 14 cb 1017,5 hPa 0,0 l/m 9,9 km/h (2 Bft) W-NW 302 0 min 0,000 mm 0,0 UV-I 0 W/m 1,0 C -1,2 C 24,1 km/h (4 Bft)
19.02.2020 07:43 2,0 C 1,1 C 2,8 C 3,9 C 4,4 C 93 % 13 lf 13 cb 80 cb 56 cb 14 cb 1017,4 hPa 0,0 l/m 6,2 km/h (2 Bft) W-NW 291 0 min 0,000 mm 0,0 UV-I 0 W/m 1,0 C 2,0 C 11,3 km/h (2 Bft)
19.02.2020 07:41 2,0 C 1,1 C 2,8 C 3,9 C 4,4 C 93 % 13 lf 13 cb 80 cb 55 cb 14 cb 1017,4 hPa 0,0 l/m 10,9 km/h (2 Bft) W 277 0 min 0,000 mm 0,0 UV-I 0 W/m 1,0 C -1,9 C 19,3 km/h (3 Bft)
19.02.2020 07:39 2,0 C 1,1 C 2,8 C 3,9 C 4,4 C 93 % 13 lf 13 cb 80 cb 55 cb 14 cb 1017,3 hPa 0,0 l/m 19,3 km/h (3 Bft) W-NW 295 0 min 0,000 mm 0,0 UV-I 0 W/m 1,0 C -6,7 C 33,8 km/h (5 Bft)
19.02.2020 07:37 1,9 C 1,1 C 2,8 C 3,9 C 4,4 C 93 % 13 lf 13 cb 80 cb 55 cb 14 cb 1017,2 hPa 0,0 l/m 20,8 km/h (4 Bft) W-NW 285 0 min 0,000 mm 0,0 UV-I 0 W/m 0,9 C -7,5 C 32,2 km/h (5 Bft)
19.02.2020 07:35 2,0 C 1,1 C 2,8 C 3,9 C 4,4 C 93 % 13 lf 13 cb 80 cb 55 cb 14 cb 1017,2 hPa 0,0 l/m 20,4 km/h (4 Bft) W-NW 292 0 min 0,000 mm 0,0 UV-I 0 W/m 1,0 C -7,2 C 30,6 km/h (5 Bft)
19.02.2020 07:33 1,9 C 1,1 C 2,8 C 3,9 C 4,4 C 93 % 13 lf 13 cb 80 cb 56 cb 14 cb 1017,2 hPa 0,0 l/m 14,9 km/h (3 Bft) W-NW 285 0 min 0,000 mm 0,0 UV-I 0 W/m 0,9 C -4,6 C 32,2 km/h (5 Bft)
19.02.2020 07:31 1,9 C 1,1 C 3,3 C 3,9 C 4,4 C 93 % 13 lf 14 cb 81 cb 55 cb 14 cb 1017,0 hPa 0,0 l/m 19,4 km/h (3 Bft) W-NW 296 0 min 0,000 mm 0,0 UV-I 0 W/m 0,9 C -6,9 C 38,6 km/h (5 Bft)
19.02.2020 07:29 1,9 C 1,1 C 3,3 C 3,9 C 4,4 C 93 % 13 lf 14 cb 81 cb 56 cb 14 cb 1016,9 hPa 0,0 l/m 20,5 km/h (4 Bft) W-NW 298 0 min 0,000 mm 0,0 UV-I 0 W/m 0,9 C -7,4 C 41,8 km/h (6 Bft)
19.02.2020 07:27 1,9 C 1,1 C 3,3 C 3,9 C 4,4 C 93 % 13 lf 14 cb 81 cb 56 cb 14 cb 1017,0 hPa 0,0 l/m 17,2 km/h (3 Bft) W-NW 283 0 min 0,000 mm 0,0 UV-I 0 W/m 0,9 C -5,9 C 33,8 km/h (5 Bft)
19.02.2020 07:25 1,9 C 1,1 C 3,3 C 3,9 C 4,4 C 93 % 13 lf 14 cb 81 cb 56 cb 14 cb 1016,9 hPa 0,0 l/m 20,0 km/h (4 Bft) W-NW 285 0 min 0,000 mm 0,0 UV-I 0 W/m 0,9 C -7,2 C 35,4 km/h (5 Bft)
19.02.2020 07:23 1,9 C 1,1 C 3,3 C 3,9 C 4,4 C 94 % 13 lf 14 cb 81 cb 56 cb 14 cb 1016,9 hPa 0,0 l/m 22,0 km/h (4 Bft) W-NW 295 0 min 0,000 mm 0,0 UV-I 0 W/m 1,0 C -8,0 C 40,2 km/h (6 Bft)
19.02.2020 07:21 1,9 C 1,1 C 3,3 C 3,9 C 4,4 C 94 % 14 lf 14 cb 81 cb 56 cb 14 cb 1017,0 hPa 0,0 l/m 19,3 km/h (3 Bft) W 263 0 min 0,000 mm 0,0 UV-I 0 W/m 1,0 C -6,9 C 32,2 km/h (5 Bft)
19.02.2020 07:19 2,0 C 1,1 C 3,3 C 3,9 C 4,4 C 94 % 14 lf 15 cb 81 cb 56 cb 14 cb 1016,8 hPa 0,0 l/m 11,1 km/h (2 Bft) W 266 0 min 0,000 mm 0,0 UV-I 0 W/m 1,1 C -2,1 C 19,3 km/h (3 Bft)
19.02.2020 07:17 1,9 C 1,1 C 3,3 C 3,9 C 4,4 C 94 % 14 lf 15 cb 81 cb 56 cb 14 cb 1016,9 hPa 0,0 l/m 13,0 km/h (3 Bft) W 263 0 min 0,000 mm 0,0 UV-I 0 W/m 1,0 C -3,5 C 27,4 km/h (4 Bft)
19.02.2020 07:15 2,0 C 1,1 C 3,3 C 3,9 C 4,4 C 94 % 14 lf 15 cb 81 cb 56 cb 14 cb 1016,8 hPa 0,0 l/m 16,7 km/h (3 Bft) W-NW 286 0 min 0,000 mm 0,0 UV-I 0 W/m 1,1 C -5,5 C 27,4 km/h (4 Bft)
19.02.2020 07:13 2,0 C 1,1 C 3,3 C 3,9 C 4,4 C 94 % 14 lf 15 cb 81 cb 56 cb 14 cb 1016,8 hPa 0,0 l/m 13,5 km/h (3 Bft) W-NW 302 0 min 0,000 mm 0,0 UV-I 0 W/m 1,1 C -3,7 C 22,5 km/h (4 Bft)
19.02.2020 07:11 2,0 C 1,1 C 3,3 C 3,9 C 4,4 C 94 % 14 lf 15 cb 81 cb 56 cb 14 cb 1016,8 hPa 0,0 l/m 18,2 km/h (3 Bft) W-NW 294 0 min 0,000 mm 0,0 UV-I 0 W/m 1,1 C -6,2 C 38,6 km/h (5 Bft)
19.02.2020 07:09 2,1 C 1,1 C 3,3 C 3,9 C 4,4 C 94 % 14 lf 16 cb 81 cb 56 cb 14 cb 1016,7 hPa 0,0 l/m 18,6 km/h (3 Bft) N-NW 347 0 min 0,000 mm 0,0 UV-I 0 W/m 1,2 C -6,3 C 38,6 km/h (5 Bft)
19.02.2020 07:07 2,1 C 1,1 C 3,3 C 3,9 C 4,4 C 94 % 14 lf 16 cb 81 cb 55 cb 14 cb 1016,8 hPa 0,0 l/m 13,6 km/h (3 Bft) W 278 0 min 0,000 mm 0,0 UV-I 0 W/m 1,2 C -3,6 C 25,7 km/h (4 Bft)
19.02.2020 07:05 2,1 C 1,1 C 3,3 C 3,9 C 4,4 C 94 % 14 lf 16 cb 81 cb 56 cb 14 cb 1016,8 hPa 0,0 l/m 11,1 km/h (2 Bft) W-NW 294 0 min 0,000 mm 0,0 UV-I 0 W/m 1,2 C -2,0 C 20,9 km/h (4 Bft)
19.02.2020 07:03 2,1 C 1,1 C 3,3 C 3,9 C 4,4 C 94 % 14 lf 17 cb 81 cb 56 cb 14 cb 1016,7 hPa 0,0 l/m 13,5 km/h (3 Bft) W-NW 288 0 min 0,000 mm 0,0 UV-I 0 W/m 1,2 C -3,6 C 22,5 km/h (4 Bft)
19.02.2020 07:01 2,1 C 1,1 C 3,3 C 3,9 C 4,4 C 94 % 14 lf 17 cb 81 cb 56 cb 14 cb 1016,6 hPa 0,0 l/m 22,5 km/h (4 Bft) W-NW 289 0 min 0,000 mm 0,0 UV-I 0 W/m 1,2 C -8,0 C 41,8 km/h (6 Bft)
19.02.2020 06:59 2,2 C 1,1 C 3,3 C 3,9 C 4,4 C 94 % 14 lf 17 cb 81 cb 56 cb 14 cb 1016,6 hPa 0,0 l/m 18,6 km/h (3 Bft) W-NW 294 0 min 0,000 mm 0,0 UV-I 0 W/m 1,3 C -6,2 C 40,2 km/h (6 Bft)
19.02.2020 06:57 2,1 C 1,7 C 3,3 C 3,9 C 4,4 C 94 % 14 lf 18 cb 81 cb 56 cb 14 cb 1016,6 hPa 0,0 l/m 15,3 km/h (3 Bft) W 265 0 min 0,000 mm 0,0 UV-I 0 W/m 1,2 C -4,6 C 27,4 km/h (4 Bft)
19.02.2020 06:55 2,1 C 1,7 C 3,3 C 3,9 C 4,4 C 94 % 14 lf 18 cb 81 cb 56 cb 14 cb 1016,6 hPa 0,0 l/m 11,6 km/h (2 Bft) W-NW 288 0 min 0,000 mm 0,0 UV-I 0 W/m 1,2 C -2,3 C 19,3 km/h (3 Bft)
19.02.2020 06:53 2,2 C 1,7 C 3,3 C 3,9 C 4,4 C 94 % 14 lf 18 cb 81 cb 56 cb 14 cb 1016,4 hPa 0,0 l/m 15,5 km/h (3 Bft) W 270 0 min 0,000 mm 0,0 UV-I 0 W/m 1,3 C -4,6 C 30,6 km/h (5 Bft)
19.02.2020 06:51 2,1 C 1,7 C 3,3 C 3,9 C 4,4 C 94 % 14 lf 19 cb 81 cb 56 cb 14 cb 1016,4 hPa 0,0 l/m 13,0 km/h (3 Bft) W-NW 298 0 min 0,000 mm 0,0 UV-I 0 W/m 1,2 C -3,2 C 22,5 km/h (4 Bft)
19.02.2020 06:49 2,2 C 1,7 C 3,3 C 3,9 C 4,4 C 94 % 14 lf 19 cb 81 cb 56 cb 14 cb 1016,5 hPa 0,0 l/m 18,0 km/h (3 Bft) W-NW 288 0 min 0,000 mm 0,0 UV-I 0 W/m 1,3 C -5,9 C 29,0 km/h (5 Bft)
19.02.2020 06:47 2,2 C 1,7 C 3,3 C 3,9 C 4,4 C 94 % 15 lf 20 cb 81 cb 56 cb 14 cb 1016,6 hPa 0,0 l/m 12,8 km/h (3 Bft) N-NW 330 0 min 0,000 mm 0,0 UV-I 0 W/m 1,3 C -3,0 C 24,1 km/h (4 Bft)
19.02.2020 06:45 2,2 C 1,7 C 3,3 C 3,9 C 4,4 C 94 % 15 lf 21 cb 81 cb 56 cb 14 cb 1016,4 hPa 0,0 l/m 11,2 km/h (2 Bft) W-NW 295 0 min 0,000 mm 0,0 UV-I 0 W/m 1,3 C -1,9 C 20,9 km/h (4 Bft)
19.02.2020 06:44 2,2 C 1,7 C 3,3 C 3,9 C 4,4 C 94 % 15 lf 21 cb 81 cb 56 cb 14 cb 1016,4 hPa 0,0 l/m 18,3 km/h (3 Bft) W-NW 291 0 min 0,000 mm 0,0 UV-I 0 W/m 1,3 C -6,0 C 29,0 km/h (5 Bft)
19.02.2020 06:43 2,2 C 1,7 C 3,3 C 3,9 C 4,4 C 94 % 15 lf 21 cb 81 cb 56 cb 14 cb 1016,3 hPa 0,0 l/m 22,0 km/h (4 Bft) W-NW 290 0 min 0,000 mm 0,0 UV-I 0 W/m 1,3 C -7,6 C 38,6 km/h (5 Bft)
19.02.2020 06:41 2,2 C 1,7 C 3,3 C 3,9 C 4,4 C 94 % 15 lf 22 cb 81 cb 56 cb 14 cb 1016,2 hPa 0,0 l/m 15,8 km/h (3 Bft) W-NW 287 0 min 0,000 mm 0,0 UV-I 0 W/m 1,3 C -4,8 C 22,5 km/h (4 Bft)
19.02.2020 06:39 2,2 C 1,7 C 3,3 C 3,9 C 4,4 C 94 % 15 lf 23 cb 81 cb 56 cb 14 cb 1016,2 hPa 0,0 l/m 15,3 km/h (3 Bft) W-SW 238 0 min 0,000 mm 0,0 UV-I 0 W/m 1,3 C -4,5 C 29,0 km/h (5 Bft)
19.02.2020 06:37 2,3 C 1,7 C 3,3 C 3,9 C 4,4 C 94 % 15 lf 24 cb 81 cb 56 cb 14 cb 1016,2 hPa 0,0 l/m 16,3 km/h (3 Bft) W-SW 251 0 min 0,000 mm 0,0 UV-I 0 W/m 1,4 C -4,9 C 25,7 km/h (4 Bft)
19.02.2020 06:35 2,3 C 1,7 C 3,3 C 3,9 C 4,4 C 95 % 15 lf 25 cb 81 cb 56 cb 14 cb 1016,2 hPa 0,0 l/m 10,2 km/h (2 Bft) W-NW 294 0 min 0,000 mm 0,0 UV-I 0 W/m 1,6 C -1,1 C 22,5 km/h (4 Bft)
19.02.2020 06:33 2,3 C 1,7 C 3,3 C 3,9 C 4,4 C 95 % 15 lf 26 cb 81 cb 56 cb 14 cb 1016,2 hPa 0,0 l/m 15,1 km/h (3 Bft) W 275 0 min 0,000 mm 0,0 UV-I 0 W/m 1,6 C -4,3 C 30,6 km/h (5 Bft)
19.02.2020 06:31 2,3 C 1,7 C 3,3 C 3,9 C 4,4 C 95 % 15 lf 27 cb 81 cb 56 cb 14 cb 1016,2 hPa 0,0 l/m 17,5 km/h (3 Bft) W-NW 292 0 min 0,000 mm 0,0 UV-I 0 W/m 1,6 C -5,5 C 25,7 km/h (4 Bft)
19.02.2020 06:29 2,3 C 1,7 C 3,3 C 3,9 C 4,4 C 95 % 15 lf 27 cb 81 cb 56 cb 14 cb 1016,0 hPa 0,0 l/m 14,8 km/h (3 Bft) W-NW 293 0 min 0,000 mm 0,0 UV-I 0 W/m 1,6 C -4,1 C 27,4 km/h (4 Bft)
19.02.2020 06:27 2,3 C 1,7 C 3,3 C 3,9 C 4,4 C 95 % 15 lf 27 cb 81 cb 56 cb 14 cb 1016,1 hPa 0,0 l/m 17,1 km/h (3 Bft) W-NW 291 0 min 0,000 mm 0,0 UV-I 0 W/m 1,6 C -5,3 C 37,0 km/h (5 Bft)
19.02.2020 06:25 2,4 C 1,7 C 3,3 C 3,9 C 4,4 C 95 % 15 lf 27 cb 81 cb 56 cb 14 cb 1016,1 hPa 0,0 l/m 15,4 km/h (3 Bft) W 274 0 min 0,000 mm 0,0 UV-I 0 W/m 1,7 C -4,3 C 27,4 km/h (4 Bft)
19.02.2020 06:23 2,4 C 1,7 C 3,3 C 3,9 C 4,4 C 95 % 15 lf 27 cb 81 cb 56 cb 14 cb 1015,9 hPa 0,0 l/m 12,5 km/h (3 Bft) W-NW 299 0 min 0,000 mm 0,0 UV-I 0 W/m 1,7 C -2,6 C 19,3 km/h (3 Bft)
19.02.2020 06:22 2,4 C 1,7 C 3,3 C 3,9 C 4,4 C 95 % 15 lf 27 cb 81 cb 56 cb 14 cb 1015,8 hPa 0,0 l/m 14,5 km/h (3 Bft) W-NW 294 0 min 0,000 mm 0,0 UV-I 0 W/m 1,7 C -3,8 C 22,5 km/h (4 Bft)
19.02.2020 06:21 2,4 C 1,7 C 3,3 C 3,9 C 4,4 C 95 % 15 lf 27 cb 81 cb 56 cb 14 cb 1015,8 hPa 0,0 l/m 13,3 km/h (3 Bft) W-NW 288 0 min 0,000 mm 0,0 UV-I 0 W/m 1,7 C -3,1 C 27,4 km/h (4 Bft)
19.02.2020 06:19 2,4 C 1,7 C 3,3 C 3,9 C 4,4 C 95 % 15 lf 27 cb 81 cb 56 cb 14 cb 1015,8 hPa 0,0 l/m 9,3 km/h (2 Bft) W 279 0 min 0,000 mm 0,0 UV-I 0 W/m 1,7 C -0,2 C 16,1 km/h (3 Bft)
19.02.2020 06:17 2,4 C 1,7 C 3,3 C 3,9 C 4,4 C 95 % 15 lf 27 cb 81 cb 56 cb 14 cb 1015,8 hPa 0,0 l/m 13,7 km/h (3 Bft) W 265 0 min 0,000 mm 0,0 UV-I 0 W/m 1,7 C -3,3 C 25,7 km/h (4 Bft)
19.02.2020 06:15 2,4 C 1,7 C 3,3 C 3,9 C 4,4 C 95 % 15 lf 27 cb 81 cb 56 cb 14 cb 1015,7 hPa 0,0 l/m 19,6 km/h (3 Bft) NW 311 0 min 0,000 mm 0,0 UV-I 0 W/m 1,7 C -6,4 C 32,2 km/h (5 Bft)
19.02.2020 06:13 2,4 C 1,7 C 3,3 C 3,9 C 4,4 C 95 % 15 lf 26 cb 81 cb 56 cb 14 cb 1015,6 hPa 0,0 l/m 15,7 km/h (3 Bft) W 266 0 min 0,000 mm 0,0 UV-I 0 W/m 1,7 C -4,5 C 30,6 km/h (5 Bft)
19.02.2020 06:11 2,4 C 1,7 C 3,3 C 3,9 C 4,4 C 95 % 15 lf 26 cb 81 cb 56 cb 14 cb 1015,6 hPa 0,0 l/m 14,8 km/h (3 Bft) W-NW 285 0 min 0,000 mm 0,0 UV-I 0 W/m 1,7 C -4,0 C 35,4 km/h (5 Bft)
19.02.2020 06:09 2,4 C 2,2 C 3,3 C 3,9 C 4,4 C 95 % 15 lf 25 cb 81 cb 56 cb 14 cb 1015,5 hPa 0,0 l/m 15,4 km/h (3 Bft) W-NW 292 0 min 0,000 mm 0,0 UV-I 0 W/m 1,7 C -4,3 C 35,4 km/h (5 Bft)
19.02.2020 06:07 2,4 C 2,2 C 3,3 C 3,9 C 4,4 C 95 % 15 lf 25 cb 81 cb 56 cb 14 cb 1015,6 hPa 0,0 l/m 15,6 km/h (3 Bft) W-NW 282 0 min 0,000 mm 0,0 UV-I 0 W/m 1,7 C -4,4 C 25,7 km/h (4 Bft)
19.02.2020 06:05 2,4 C 2,2 C 3,3 C 3,9 C 4,4 C 95 % 15 lf 24 cb 81 cb 56 cb 14 cb 1015,5 hPa 0,0 l/m 14,8 km/h (3 Bft) W-NW 288 0 min 0,000 mm 0,0 UV-I 0 W/m 1,7 C -4,0 C 22,5 km/h (4 Bft)
19.02.2020 06:03 2,4 C 2,2 C 3,3 C 3,9 C 4,4 C 95 % 15 lf 22 cb 81 cb 56 cb 14 cb 1015,5 hPa 0,0 l/m 19,2 km/h (3 Bft) W-NW 288 0 min 0,000 mm 0,0 UV-I 0 W/m 1,7 C -6,2 C 35,4 km/h (5 Bft)
19.02.2020 06:01 2,4 C 2,2 C 3,3 C 3,9 C 4,4 C 95 % 15 lf 21 cb 81 cb 56 cb 14 cb 1015,6 hPa 0,0 l/m 14,4 km/h (3 Bft) W 272 0 min 0,000 mm 0,0 UV-I 0 W/m 1,7 C -3,7 C 25,7 km/h (4 Bft)
19.02.2020 05:59 2,5 C 2,2 C 3,3 C 3,9 C 4,4 C 95 % 15 lf 20 cb 81 cb 56 cb 14 cb 1015,5 hPa 0,0 l/m 15,9 km/h (3 Bft) W-NW 286 0 min 0,000 mm 0,0 UV-I 0 W/m 1,8 C -4,4 C 29,0 km/h (5 Bft)
19.02.2020 05:57 2,5 C 2,2 C 3,3 C 3,9 C 4,4 C 95 % 15 lf 18 cb 81 cb 56 cb 14 cb 1015,5 hPa 0,2 l/m 16,9 km/h (3 Bft) W 277 0 min 0,000 mm 0,0 UV-I 0 W/m 1,8 C -5,0 C 29,0 km/h (5 Bft)
19.02.2020 05:55 2,5 C 2,2 C 3,3 C 3,9 C 4,4 C 95 % 15 lf 18 cb 81 cb 56 cb 14 cb 1015,5 hPa 0,0 l/m 15,2 km/h (3 Bft) W 271 0 min 0,000 mm 0,0 UV-I 0 W/m 1,8 C -4,1 C 32,2 km/h (5 Bft)
19.02.2020 05:53 2,5 C 2,2 C 3,3 C 3,9 C 4,4 C 95 % 15 lf 18 cb 81 cb 56 cb 14 cb 1015,5 hPa 0,0 l/m 14,0 km/h (3 Bft) SW 225 0 min 0,000 mm 0,0 UV-I 0 W/m 1,8 C -3,4 C 22,5 km/h (4 Bft)
19.02.2020 05:51 2,5 C 2,2 C 3,3 C 3,9 C 4,4 C 95 % 15 lf 18 cb 81 cb 56 cb 14 cb 1015,5 hPa 0,0 l/m 14,7 km/h (3 Bft) W 270 0 min 0,000 mm 0,0 UV-I 0 W/m 1,8 C -3,8 C 32,2 km/h (5 Bft)
19.02.2020 05:49 2,5 C 2,2 C 3,3 C 3,9 C 4,4 C 95 % 15 lf 18 cb 81 cb 56 cb 14 cb 1015,3 hPa 0,0 l/m 11,6 km/h (2 Bft) W 276 0 min 0,000 mm 0,0 UV-I 0 W/m 1,8 C -1,9 C 25,7 km/h (4 Bft)
19.02.2020 05:47 2,5 C 2,2 C 3,3 C 3,9 C 4,4 C 95 % 15 lf 18 cb 81 cb 56 cb 14 cb 1015,3 hPa 0,0 l/m 13,4 km/h (3 Bft) W-SW 242 0 min 0,000 mm 0,0 UV-I 0 W/m 1,8 C -3,0 C 24,1 km/h (4 Bft)
19.02.2020 05:45 2,5 C 2,2 C 3,3 C 3,9 C 4,4 C 95 % 15 lf 19 cb 81 cb 56 cb 14 cb 1015,4 hPa 0,0 l/m 15,6 km/h (3 Bft) W-SW 257 0 min 0,000 mm 0,0 UV-I 0 W/m 1,8 C -4,3 C 27,4 km/h (4 Bft)
19.02.2020 05:43 2,5 C 2,2 C 3,3 C 3,9 C 4,4 C 95 % 15 lf 19 cb 81 cb 56 cb 14 cb 1015,3 hPa 0,0 l/m 13,9 km/h (3 Bft) W-NW 287 0 min 0,000 mm 0,0 UV-I 0 W/m 1,8 C -3,3 C 25,7 km/h (4 Bft)
19.02.2020 05:41 2,4 C 2,2 C 3,3 C 3,9 C 4,4 C 95 % 15 lf 19 cb 81 cb 56 cb 14 cb 1015,3 hPa 0,0 l/m 16,8 km/h (3 Bft) W 273 0 min 0,000 mm 0,0 UV-I 0 W/m 1,7 C -5,0 C 29,0 km/h (5 Bft)
19.02.2020 05:39 2,4 C 2,2 C 3,3 C 3,9 C 4,4 C 95 % 15 lf 19 cb 81 cb 56 cb 14 cb 1015,3 hPa 0,0 l/m 14,0 km/h (3 Bft) W 267 0 min 0,000 mm 0,0 UV-I 0 W/m 1,7 C -3,5 C 32,2 km/h (5 Bft)
19.02.2020 05:37 2,4 C 2,2 C 3,3 C 3,9 C 4,4 C 95 % 15 lf 19 cb 81 cb 56 cb 14 cb 1015,2 hPa 0,0 l/m 16,5 km/h (3 Bft) W 268 0 min 0,000 mm 0,0 UV-I 0 W/m 1,7 C -4,9 C 29,0 km/h (5 Bft)
19.02.2020 05:35 2,4 C 2,2 C 3,3 C 3,9 C 4,4 C 95 % 15 lf 19 cb 81 cb 56 cb 14 cb 1015,2 hPa 0,0 l/m 20,8 km/h (4 Bft) W 271 0 min 0,000 mm 0,0 UV-I 0 W/m 1,7 C -6,9 C 33,8 km/h (5 Bft)
19.02.2020 05:33 2,4 C 2,2 C 3,3 C 3,9 C 4,4 C 95 % 15 lf 19 cb 81 cb 56 cb 14 cb 1015,2 hPa 0,0 l/m 14,1 km/h (3 Bft) W-NW 288 0 min 0,000 mm 0,0 UV-I 0 W/m 1,7 C -3,6 C 35,4 km/h (5 Bft)
19.02.2020 05:31 2,4 C 2,2 C 3,3 C 3,9 C 4,4 C 95 % 15 lf 19 cb 81 cb 56 cb 14 cb 1015,2 hPa 0,0 l/m 19,0 km/h (3 Bft) W-SW 246 0 min 0,000 mm 0,0 UV-I 0 W/m 1,7 C -6,1 C 30,6 km/h (5 Bft)
19.02.2020 05:29 2,4 C 2,2 C 3,3 C 4,4 C 4,4 C 95 % 15 lf 19 cb 81 cb 56 cb 14 cb 1015,3 hPa 0,0 l/m 13,4 km/h (3 Bft) W-SW 251 0 min 0,000 mm 0,0 UV-I 0 W/m 1,7 C -3,1 C 33,8 km/h (5 Bft)
19.02.2020 05:27 2,4 C 2,2 C 3,3 C 4,4 C 4,4 C 95 % 15 lf 19 cb 81 cb 56 cb 14 cb 1015,2 hPa 0,2 l/m 15,3 km/h (3 Bft) W 278 0 min 0,000 mm 0,0 UV-I 0 W/m 1,7 C -4,2 C 25,7 km/h (4 Bft)
19.02.2020 05:25 2,4 C 2,2 C 3,3 C 4,4 C 4,4 C 95 % 15 lf 19 cb 81 cb 56 cb 14 cb 1015,2 hPa 0,0 l/m 12,4 km/h (3 Bft) W 280 0 min 0,000 mm 0,0 UV-I 0 W/m 1,7 C -2,5 C 24,1 km/h (4 Bft)
19.02.2020 05:23 2,3 C 2,2 C 3,3 C 4,4 C 4,4 C 95 % 15 lf 19 cb 81 cb 56 cb 14 cb 1015,2 hPa 0,0 l/m 17,4 km/h (3 Bft) W-SW 252 0 min 0,000 mm 0,0 UV-I 0 W/m 1,6 C -5,5 C 33,8 km/h (5 Bft)
19.02.2020 05:21 2,3 C 2,2 C 3,3 C 4,4 C 4,4 C 95 % 15 lf 19 cb 81 cb 56 cb 14 cb 1015,2 hPa 0,0 l/m 20,2 km/h (4 Bft) W-NW 290 0 min 0,000 mm 0,0 UV-I 0 W/m 1,6 C -6,7 C 35,4 km/h (5 Bft)
19.02.2020 05:19 2,3 C 1,7 C 3,3 C 4,4 C 4,4 C 95 % 15 lf 19 cb 81 cb 56 cb 14 cb 1015,1 hPa 0,0 l/m 13,9 km/h (3 Bft) W-NW 289 0 min 0,000 mm 0,0 UV-I 0 W/m 1,6 C -3,6 C 29,0 km/h (5 Bft)
19.02.2020 05:17 2,3 C 1,7 C 3,3 C 4,4 C 4,4 C 95 % 15 lf 19 cb 81 cb 56 cb 14 cb 1015,1 hPa 0,0 l/m 19,1 km/h (3 Bft) W 259 0 min 0,000 mm 0,0 UV-I 0 W/m 1,6 C -6,3 C 38,6 km/h (5 Bft)
19.02.2020 05:15 2,3 C 1,7 C 3,3 C 4,4 C 4,4 C 94 % 14 lf 19 cb 81 cb 56 cb 14 cb 1014,9 hPa 0,0 l/m 18,1 km/h (3 Bft) W-NW 296 0 min 0,000 mm 0,0 UV-I 0 W/m 1,4 C -5,8 C 38,6 km/h (5 Bft)
19.02.2020 05:13 2,3 C 1,7 C 3,3 C 4,4 C 4,4 C 94 % 14 lf 19 cb 81 cb 56 cb 14 cb 1015,0 hPa 0,0 l/m 15,5 km/h (3 Bft) W-NW 284 0 min 0,000 mm 0,0 UV-I 0 W/m 1,4 C -4,5 C 29,0 km/h (5 Bft)
19.02.2020 05:11 2,3 C 1,7 C 3,3 C 4,4 C 4,4 C 94 % 14 lf 19 cb 81 cb 56 cb 14 cb 1014,9 hPa 0,0 l/m 11,3 km/h (2 Bft) W 267 0 min 0,000 mm 0,0 UV-I 0 W/m 1,4 C -1,9 C 20,9 km/h (4 Bft)
19.02.2020 05:09 2,3 C 1,7 C 3,3 C 4,4 C 4,4 C 94 % 14 lf 19 cb 81 cb 56 cb 14 cb 1015,0 hPa 0,2 l/m 16,2 km/h (3 Bft) W 268 0 min 0,000 mm 0,0 UV-I 0 W/m 1,4 C -4,8 C 32,2 km/h (5 Bft)
19.02.2020 05:07 2,4 C 1,7 C 3,3 C 4,4 C 4,4 C 94 % 13 lf 19 cb 81 cb 56 cb 14 cb 1014,8 hPa 0,0 l/m 15,9 km/h (3 Bft) W 268 0 min 0,000 mm 0,0 UV-I 0 W/m 1,5 C -4,6 C 30,6 km/h (5 Bft)
19.02.2020 05:05 2,4 C 1,7 C 3,3 C 4,4 C 4,4 C 94 % 14 lf 19 cb 81 cb 56 cb 14 cb 1014,7 hPa 0,0 l/m 13,2 km/h (3 Bft) W-SW 254 0 min 0,000 mm 0,0 UV-I 0 W/m 1,5 C -3,0 C 29,0 km/h (5 Bft)
19.02.2020 05:03 2,4 C 2,2 C 3,3 C 4,4 C 4,4 C 94 % 14 lf 19 cb 81 cb 56 cb 14 cb 1014,8 hPa 0,0 l/m 10,1 km/h (2 Bft) W-SW 252 0 min 0,000 mm 0,0 UV-I 0 W/m 1,5 C -0,9 C 19,3 km/h (3 Bft)
19.02.2020 05:01 2,4 C 2,2 C 3,3 C 4,4 C 4,4 C 94 % 14 lf 19 cb 81 cb 56 cb 14 cb 1014,8 hPa 0,0 l/m 10,8 km/h (2 Bft) W-SW 245 0 min 0,000 mm 0,0 UV-I 0 W/m 1,5 C -1,4 C 22,5 km/h (4 Bft)
19.02.2020 04:59 2,5 C 2,2 C 3,3 C 4,4 C 4,4 C 94 % 15 lf 19 cb 81 cb 56 cb 14 cb 1014,8 hPa 0,2 l/m 20,9 km/h (4 Bft) W 272 0 min 0,000 mm 0,0 UV-I 0 W/m 1,6 C -6,8 C 33,8 km/h (5 Bft)
19.02.2020 04:57 2,5 C 2,2 C 3,3 C 4,4 C 4,4 C 94 % 15 lf 19 cb 81 cb 56 cb 14 cb 1014,8 hPa 0,0 l/m 9,6 km/h (2 Bft) W-SW 245 0 min 0,000 mm 0,0 UV-I 0 W/m 1,6 C -0,4 C 22,5 km/h (4 Bft)
19.02.2020 04:55 2,5 C 2,2 C 3,3 C 4,4 C 4,4 C 94 % 15 lf 19 cb 81 cb 56 cb 14 cb 1014,7 hPa 0,0 l/m 11,3 km/h (2 Bft) W 279 0 min 0,000 mm 0,0 UV-I 0 W/m 1,6 C -1,6 C 22,5 km/h (4 Bft)
19.02.2020 04:53 2,6 C 2,2 C 3,3 C 4,4 C 4,4 C 94 % 15 lf 19 cb 81 cb 56 cb 14 cb 1014,5 hPa 0,0 l/m 12,7 km/h (3 Bft) W 279 0 min 0,000 mm 0,0 UV-I 0 W/m 1,7 C -2,5 C 20,9 km/h (4 Bft)
19.02.2020 04:51 2,6 C 2,2 C 3,3 C 4,4 C 4,4 C 94 % 15 lf 19 cb 81 cb 56 cb 14 cb 1014,5 hPa 0,0 l/m 8,0 km/h (2 Bft) W-SW 242 0 min 0,000 mm 0,0 UV-I 0 W/m 1,7 C 1,1 C 19,3 km/h (3 Bft)
19.02.2020 04:49 2,6 C 2,2 C 3,3 C 4,4 C 4,4 C 94 % 15 lf 19 cb 81 cb 56 cb 14 cb 1014,5 hPa 0,0 l/m 8,2 km/h (2 Bft) W 275 0 min 0,000 mm 0,0 UV-I 0 W/m 1,7 C 0,9 C 17,7 km/h (3 Bft)
19.02.2020 04:47 2,6 C 2,2 C 3,3 C 4,4 C 4,4 C 94 % 15 lf 19 cb 81 cb 56 cb 14 cb 1014,5 hPa 0,0 l/m 11,6 km/h (2 Bft) W-SW 246 0 min 0,000 mm 0,0 UV-I 0 W/m 1,7 C -1,7 C 27,4 km/h (4 Bft)
19.02.2020 04:45 2,7 C 2,2 C 3,3 C 4,4 C 4,4 C 94 % 15 lf 19 cb 81 cb 57 cb 14 cb 1014,4 hPa 0,0 l/m 7,5 km/h (2 Bft) W-SW 258 0 min 0,000 mm 0,0 UV-I 0 W/m 1,8 C 1,6 C 14,5 km/h (3 Bft)
19.02.2020 04:43 2,7 C 2,2 C 3,3 C 4,4 C 4,4 C 94 % 15 lf 20 cb 81 cb 57 cb 14 cb 1014,4 hPa 0,0 l/m 12,7 km/h (3 Bft) W-SW 244 0 min 0,000 mm 0,0 UV-I 0 W/m 1,8 C -2,3 C 20,9 km/h (4 Bft)
19.02.2020 04:41 2,7 C 2,2 C 3,3 C 4,4 C 4,4 C 94 % 15 lf 20 cb 81 cb 57 cb 14 cb 1014,4 hPa 0,2 l/m 10,9 km/h (2 Bft) SW 225 0 min 0,000 mm 0,0 UV-I 0 W/m 1,8 C -1,1 C 22,5 km/h (4 Bft)
19.02.2020 04:39 2,8 C 2,2 C 3,3 C 4,4 C 4,4 C 94 % 15 lf 20 cb 81 cb 57 cb 14 cb 1014,4 hPa 0,0 l/m 10,2 km/h (2 Bft) W 263 0 min 0,000 mm 0,0 UV-I 0 W/m 1,9 C -0,5 C 17,7 km/h (3 Bft)
19.02.2020 04:38 2,8 C 2,2 C 3,3 C 4,4 C 4,4 C 94 % 15 lf 20 cb 81 cb 57 cb 14 cb 1014,4 hPa 0,0 l/m 13,9 km/h (3 Bft) SW 223 0 min 0,000 mm 0,0 UV-I 0 W/m 1,9 C -3,0 C 17,7 km/h (3 Bft)
19.02.2020 04:37 2,8 C 2,2 C 3,3 C 4,4 C 4,4 C 94 % 15 lf 21 cb 81 cb 57 cb 14 cb 1014,4 hPa 0,0 l/m 8,9 km/h (2 Bft) W-SW 245 0 min 0,000 mm 0,0 UV-I 0 W/m 1,9 C 0,5 C 25,7 km/h (4 Bft)
19.02.2020 04:36 2,8 C 2,2 C 3,3 C 4,4 C 4,4 C 94 % 14 lf 21 cb 81 cb 57 cb 14 cb 1014,4 hPa 0,0 l/m 11,9 km/h (2 Bft) W-SW 251 0 min 0,000 mm 0,0 UV-I 0 W/m 1,9 C -1,7 C 20,9 km/h (4 Bft)
19.02.2020 04:34 2,8 C 2,2 C 3,3 C 4,4 C 4,4 C 94 % 14 lf 21 cb 81 cb 57 cb 14 cb 1014,4 hPa 0,0 l/m 12,0 km/h (2 Bft) W 274 0 min 0,000 mm 0,0 UV-I 0 W/m 1,9 C -1,8 C 19,3 km/h (3 Bft)
19.02.2020 04:32 2,8 C 2,2 C 3,3 C 4,4 C 4,4 C 94 % 14 lf 21 cb 81 cb 57 cb 14 cb 1014,4 hPa 0,0 l/m 14,8 km/h (3 Bft) W-SW 254 0 min 0,000 mm 0,0 UV-I 0 W/m 1,9 C -3,5 C 29,0 km/h (5 Bft)
19.02.2020 04:30 2,8 C 2,2 C 3,3 C 4,4 C 4,4 C 94 % 14 lf 20 cb 81 cb 57 cb 14 cb 1014,5 hPa 0,0 l/m 8,8 km/h (2 Bft) W-SW 244 0 min 0,000 mm 0,0 UV-I 0 W/m 1,9 C 0,6 C 16,1 km/h (3 Bft)
19.02.2020 04:28 2,8 C 2,2 C 3,3 C 4,4 C 4,4 C 94 % 14 lf 20 cb 81 cb 57 cb 14 cb 1014,4 hPa 0,0 l/m 10,6 km/h (2 Bft) W 260 0 min 0,000 mm 0,0 UV-I 0 W/m 1,9 C -0,8 C 19,3 km/h (3 Bft)
19.02.2020 04:26 2,8 C 2,2 C 3,3 C 4,4 C 4,4 C 94 % 14 lf 19 cb 81 cb 57 cb 14 cb 1014,5 hPa 0,0 l/m 16,1 km/h (3 Bft) W-SW 250 0 min 0,000 mm 0,0 UV-I 0 W/m 1,9 C -4,2 C 29,0 km/h (5 Bft)
19.02.2020 04:24 2,9 C 2,2 C 3,3 C 4,4 C 4,4 C 94 % 14 lf 19 cb 81 cb 57 cb 14 cb 1014,4 hPa 0,0 l/m 14,8 km/h (3 Bft) W 264 0 min 0,000 mm 0,0 UV-I 0 W/m 2,0 C -3,4 C 25,7 km/h (4 Bft)
19.02.2020 04:22 2,9 C 2,2 C 3,3 C 4,4 C 4,4 C 94 % 14 lf 18 cb 81 cb 57 cb 14 cb 1014,5 hPa 0,0 l/m 19,2 km/h (3 Bft) W 275 0 min 0,000 mm 0,0 UV-I 0 W/m 2,0 C -5,5 C 32,2 km/h (5 Bft)
19.02.2020 04:20 2,9 C 2,2 C 3,3 C 4,4 C 4,4 C 94 % 14 lf 18 cb 81 cb 57 cb 14 cb 1014,5 hPa 0,0 l/m 16,2 km/h (3 Bft) W 279 0 min 0,000 mm 0,0 UV-I 0 W/m 2,0 C -4,1 C 27,4 km/h (4 Bft)
19.02.2020 04:18 2,9 C 2,2 C 3,3 C 4,4 C 4,4 C 94 % 14 lf 17 cb 81 cb 57 cb 14 cb 1014,5 hPa 0,0 l/m 16,6 km/h (3 Bft) W 273 0 min 0,000 mm 0,0 UV-I 0 W/m 2,0 C -4,3 C 30,6 km/h (5 Bft)
19.02.2020 04:16 2,9 C 2,2 C 3,3 C 4,4 C 4,4 C 94 % 14 lf 17 cb 81 cb 57 cb 14 cb 1014,5 hPa 0,0 l/m 14,6 km/h (3 Bft) W-NW 296 0 min 0,000 mm 0,0 UV-I 0 W/m 2,0 C -3,2 C 32,2 km/h (5 Bft)
19.02.2020 04:14 3,0 C 2,2 C 3,3 C 4,4 C 4,4 C 94 % 14 lf 17 cb 81 cb 57 cb 14 cb 1014,4 hPa 0,0 l/m 18,8 km/h (3 Bft) W 270 0 min 0,000 mm 0,0 UV-I 0 W/m 2,1 C -5,2 C 30,6 km/h (5 Bft)
19.02.2020 04:12 3,0 C 2,2 C 3,3 C 4,4 C 4,4 C 94 % 14 lf 17 cb 81 cb 57 cb 14 cb 1014,4 hPa 0,0 l/m 7,5 km/h (2 Bft) SW 231 0 min 0,000 mm 0,0 UV-I 0 W/m 2,1 C 2,0 C 11,3 km/h (2 Bft)
19.02.2020 04:11 3,1 C 2,2 C 3,3 C 4,4 C 4,4 C 94 % 14 lf 17 cb 81 cb 57 cb 14 cb 1014,2 hPa 0,0 l/m 8,1 km/h (2 Bft) W 261 0 min 0,000 mm 0,0 UV-I 0 W/m 2,2 C 1,5 C 16,1 km/h (3 Bft)
19.02.2020 04:10 3,1 C 2,2 C 3,3 C 4,4 C 4,4 C 94 % 14 lf 17 cb 82 cb 57 cb 14 cb 1014,2 hPa 0,0 l/m 10,1 km/h (2 Bft) W 280 0 min 0,000 mm 0,0 UV-I 0 W/m 2,2 C -0,1 C 24,1 km/h (4 Bft)
19.02.2020 04:08 3,1 C 2,2 C 3,3 C 4,4 C 4,4 C 94 % 14 lf 16 cb 82 cb 57 cb 14 cb 1014,1 hPa 0,0 l/m 14,1 km/h (3 Bft) SW 233 0 min 0,000 mm 0,0 UV-I 0 W/m 2,2 C -2,7 C 29,0 km/h (5 Bft)
19.02.2020 04:06 3,1 C 2,2 C 3,3 C 4,4 C 4,4 C 94 % 14 lf 16 cb 82 cb 57 cb 14 cb 1014,1 hPa 0,2 l/m 10,5 km/h (2 Bft) W 267 0 min 0,000 mm 0,0 UV-I 0 W/m 2,2 C -0,4 C 24,1 km/h (4 Bft)
19.02.2020 04:04 3,1 C 2,2 C 3,3 C 4,4 C 4,4 C 94 % 14 lf 16 cb 82 cb 57 cb 14 cb 1014,1 hPa 0,0 l/m 8,6 km/h (2 Bft) SW 219 0 min 0,000 mm 0,0 UV-I 0 W/m 2,2 C 1,1 C 19,3 km/h (3 Bft)
19.02.2020 04:02 3,1 C 2,2 C 3,3 C 4,4 C 4,4 C 94 % 14 lf 16 cb 82 cb 57 cb 14 cb 1014,1 hPa 0,0 l/m 8,6 km/h (2 Bft) W-SW 244 0 min 0,000 mm 0,0 UV-I 0 W/m 2,2 C 1,1 C 16,1 km/h (3 Bft)
19.02.2020 04:00 3,1 C 2,2 C 3,3 C 4,4 C 4,4 C 94 % 14 lf 16 cb 82 cb 57 cb 14 cb 1014,1 hPa 0,0 l/m 11,2 km/h (2 Bft) SW 236 0 min 0,000 mm 0,0 UV-I 0 W/m 2,2 C -0,9 C 25,7 km/h (4 Bft)
19.02.2020 03:58 3,2 C 2,2 C 3,3 C 4,4 C 4,4 C 94 % 14 lf 16 cb 82 cb 57 cb 14 cb 1014,1 hPa 0,0 l/m 15,4 km/h (3 Bft) SW 230 0 min 0,000 mm 0,0 UV-I 0 W/m 2,3 C -3,3 C 25,7 km/h (4 Bft)
19.02.2020 03:56 3,2 C 2,8 C 3,3 C 4,4 C 4,4 C 94 % 13 lf 16 cb 82 cb 57 cb 14 cb 1014,0 hPa 0,0 l/m 12,4 km/h (3 Bft) W-SW 244 0 min 0,000 mm 0,0 UV-I 0 W/m 2,3 C -1,6 C 24,1 km/h (4 Bft)
19.02.2020 03:54 3,2 C 2,8 C 3,3 C 4,4 C 4,4 C 94 % 13 lf 16 cb 82 cb 57 cb 14 cb 1013,9 hPa 0,0 l/m 11,5 km/h (2 Bft) W 269 0 min 0,000 mm 0,0 UV-I 0 W/m 2,3 C -1,0 C 22,5 km/h (4 Bft)
19.02.2020 03:52 3,2 C 2,8 C 3,3 C 4,4 C 4,4 C 94 % 13 lf 16 cb 82 cb 57 cb 14 cb 1014,0 hPa 0,0 l/m 12,1 km/h (2 Bft) W-SW 249 0 min 0,000 mm 0,0 UV-I 0 W/m 2,3 C -1,4 C 25,7 km/h (4 Bft)
19.02.2020 03:50 3,3 C 2,8 C 3,3 C 4,4 C 4,4 C 94 % 13 lf 16 cb 82 cb 57 cb 14 cb 1013,9 hPa 0,0 l/m 9,1 km/h (2 Bft) W-SW 247 0 min 0,000 mm 0,0 UV-I 0 W/m 2,4 C 0,9 C 16,1 km/h (3 Bft)
19.02.2020 03:48 3,3 C 2,8 C 3,3 C 4,4 C 4,4 C 94 % 13 lf 16 cb 82 cb 57 cb 14 cb 1014,0 hPa 0,0 l/m 11,5 km/h (2 Bft) W 278 0 min 0,000 mm 0,0 UV-I 0 W/m 2,4 C -0,9 C 20,9 km/h (4 Bft)
19.02.2020 03:46 3,3 C 2,8 C 3,3 C 4,4 C 4,4 C 94 % 14 lf 16 cb 82 cb 57 cb 14 cb 1014,0 hPa 0,2 l/m 8,9 km/h (2 Bft) SW 231 0 min 0,000 mm 0,0 UV-I 0 W/m 2,4 C 1,1 C 22,5 km/h (4 Bft)
19.02.2020 03:44 3,3 C 2,8 C 3,3 C 4,4 C 4,4 C 94 % 14 lf 16 cb 82 cb 57 cb 14 cb 1014,1 hPa 0,0 l/m 15,9 km/h (3 Bft) W-SW 253 0 min 0,000 mm 0,0 UV-I 0 W/m 2,4 C -3,5 C 30,6 km/h (5 Bft)
19.02.2020 03:42 3,4 C 2,8 C 3,3 C 4,4 C 4,4 C 94 % 14 lf 16 cb 82 cb 57 cb 14 cb 1014,1 hPa 0,0 l/m 8,4 km/h (2 Bft) W 269 0 min 0,000 mm 0,0 UV-I 0 W/m 2,5 C 1,6 C 20,9 km/h (4 Bft)
19.02.2020 03:40 3,4 C 2,8 C 3,3 C 4,4 C 4,4 C 93 % 14 lf 16 cb 83 cb 57 cb 14 cb 1014,0 hPa 0,2 l/m 13,3 km/h (3 Bft) W 267 0 min 0,000 mm 0,0 UV-I 0 W/m 2,4 C -1,9 C 32,2 km/h (5 Bft)
19.02.2020 03:38 3,4 C 2,8 C 3,3 C 4,4 C 4,4 C 93 % 15 lf 15 cb 83 cb 57 cb 14 cb 1014,1 hPa 0,0 l/m 15,1 km/h (3 Bft) SW 234 0 min 0,000 mm 0,0 UV-I 0 W/m 2,4 C -2,9 C 25,7 km/h (4 Bft)
19.02.2020 03:36 3,4 C 2,8 C 3,3 C 4,4 C 4,4 C 93 % 15 lf 15 cb 83 cb 57 cb 14 cb 1014,1 hPa 0,0 l/m 10,3 km/h (2 Bft) W 262 0 min 0,000 mm 0,0 UV-I 0 W/m 2,4 C 0,1 C 24,1 km/h (4 Bft)
19.02.2020 03:34 3,4 C 2,8 C 3,3 C 4,4 C 4,4 C 93 % 15 lf 15 cb 83 cb 57 cb 14 cb 1014,0 hPa 0,2 l/m 9,0 km/h (2 Bft) SW 227 0 min 0,000 mm 0,0 UV-I 0 W/m 2,4 C 1,1 C 19,3 km/h (3 Bft)
19.02.2020 03:32 3,5 C 2,8 C 3,3 C 4,4 C 4,4 C 93 % 15 lf 15 cb 83 cb 57 cb 14 cb 1014,1 hPa 0,0 l/m 14,8 km/h (3 Bft) W 266 0 min 0,000 mm 0,0 UV-I 0 W/m 2,5 C -2,6 C 27,4 km/h (4 Bft)
19.02.2020 03:30 3,5 C 2,8 C 3,3 C 4,4 C 4,4 C 93 % 15 lf 15 cb 83 cb 57 cb 14 cb 1014,0 hPa 0,0 l/m 8,6 km/h (2 Bft) W-SW 248 0 min 0,000 mm 0,0 UV-I 0 W/m 2,5 C 1,5 C 17,7 km/h (3 Bft)
19.02.2020 03:28 3,5 C 2,8 C 3,3 C 4,4 C 4,4 C 93 % 15 lf 15 cb 83 cb 57 cb 14 cb 1014,1 hPa 0,0 l/m 11,8 km/h (2 Bft) SW 234 0 min 0,000 mm 0,0 UV-I 0 W/m 2,5 C -0,8 C 29,0 km/h (5 Bft)
19.02.2020 03:26 3,5 C 2,8 C 3,3 C 4,4 C 4,4 C 93 % 15 lf 15 cb 83 cb 57 cb 14 cb 1013,9 hPa 0,2 l/m 13,3 km/h (3 Bft) W 265 0 min 0,000 mm 0,0 UV-I 0 W/m 2,5 C -1,8 C 25,7 km/h (4 Bft)
19.02.2020 03:24 3,5 C 2,8 C 3,3 C 4,4 C 4,4 C 93 % 15 lf 15 cb 83 cb 57 cb 14 cb 1014,1 hPa 0,0 l/m 13,4 km/h (3 Bft) SW 226 0 min 0,000 mm 0,0 UV-I 0 W/m 2,5 C -1,8 C 29,0 km/h (5 Bft)
19.02.2020 03:22 3,4 C 2,8 C 3,3 C 4,4 C 4,4 C 93 % 15 lf 15 cb 83 cb 57 cb 14 cb 1014,0 hPa 0,0 l/m 13,5 km/h (3 Bft) W 275 0 min 0,000 mm 0,0 UV-I 0 W/m 2,4 C -2,0 C 25,7 km/h (4 Bft)
19.02.2020 03:20 3,4 C 2,8 C 3,3 C 4,4 C 4,4 C 94 % 15 lf 15 cb 83 cb 57 cb 14 cb 1014,0 hPa 0,0 l/m 12,0 km/h (2 Bft) W-SW 246 0 min 0,000 mm 0,0 UV-I 0 W/m 2,5 C -1,1 C 29,0 km/h (5 Bft)
19.02.2020 03:18 3,3 C 2,8 C 3,3 C 4,4 C 4,4 C 94 % 15 lf 15 cb 83 cb 57 cb 14 cb 1014,1 hPa 0,0 l/m 14,0 km/h (3 Bft) S-SW 199 0 min 0,000 mm 0,0 UV-I 0 W/m 2,4 C -2,4 C 25,7 km/h (4 Bft)
19.02.2020 03:16 3,3 C 2,8 C 3,3 C 4,4 C 4,4 C 94 % 15 lf 16 cb 83 cb 57 cb 14 cb 1014,0 hPa 0,0 l/m 10,4 km/h (2 Bft) W-SW 238 0 min 0,000 mm 0,0 UV-I 0 W/m 2,4 C -0,1 C 24,1 km/h (4 Bft)
19.02.2020 03:14 3,3 C 2,8 C 3,3 C 4,4 C 4,4 C 94 % 15 lf 16 cb 83 cb 57 cb 14 cb 1014,0 hPa 0,0 l/m 9,7 km/h (2 Bft) W-SW 247 0 min 0,000 mm 0,0 UV-I 0 W/m 2,4 C 0,4 C 17,7 km/h (3 Bft)
19.02.2020 03:13 3,3 C 2,8 C 3,3 C 4,4 C 4,4 C 94 % 15 lf 15 cb 83 cb 57 cb 14 cb 1014,0 hPa 0,0 l/m 9,4 km/h (2 Bft) S 189 0 min 0,000 mm 0,0 UV-I 0 W/m 2,4 C 0,7 C 14,5 km/h (3 Bft)
19.02.2020 03:12 3,3 C 2,8 C 3,3 C 4,4 C 4,4 C 94 % 15 lf 15 cb 83 cb 57 cb 14 cb 1014,0 hPa 0,0 l/m 9,7 km/h (2 Bft) W-SW 253 0 min 0,000 mm 0,0 UV-I 0 W/m 2,4 C 0,4 C 22,5 km/h (4 Bft)
19.02.2020 03:10 3,2 C 2,8 C 3,3 C 4,4 C 4,4 C 94 % 15 lf 14 cb 83 cb 57 cb 14 cb 1014,1 hPa 0,0 l/m 11,5 km/h (2 Bft) SW 219 0 min 0,000 mm 0,0 UV-I 0 W/m 2,3 C -1,0 C 19,3 km/h (3 Bft)
19.02.2020 03:08 3,2 C 2,2 C 3,3 C 4,4 C 4,4 C 94 % 15 lf 14 cb 83 cb 57 cb 14 cb 1014,1 hPa 0,0 l/m 7,5 km/h (2 Bft) W-SW 250 0 min 0,000 mm 0,0 UV-I 0 W/m 2,3 C 2,2 C 16,1 km/h (3 Bft)
19.02.2020 03:06 3,2 C 2,2 C 3,3 C 4,4 C 4,4 C 93 % 15 lf 15 cb 83 cb 57 cb 14 cb 1014,2 hPa 0,0 l/m 8,4 km/h (2 Bft) W-SW 250 0 min 0,000 mm 0,0 UV-I 0 W/m 2,2 C 1,4 C 20,9 km/h (4 Bft)
19.02.2020 03:04 3,2 C 2,2 C 3,3 C 4,4 C 4,4 C 94 % 15 lf 15 cb 83 cb 56 cb 14 cb 1014,1 hPa 0,0 l/m 8,3 km/h (2 Bft) SW 228 0 min 0,000 mm 0,0 UV-I 0 W/m 2,3 C 1,5 C 22,5 km/h (4 Bft)
19.02.2020 03:02 3,2 C 2,2 C 3,3 C 4,4 C 4,4 C 93 % 15 lf 15 cb 83 cb 56 cb 14 cb 1014,1 hPa 0,0 l/m 11,3 km/h (2 Bft) W-SW 239 0 min 0,000 mm 0,0 UV-I 0 W/m 2,2 C -0,8 C 20,9 km/h (4 Bft)
19.02.2020 03:00 3,2 C 2,2 C 3,3 C 4,4 C 4,4 C 93 % 15 lf 15 cb 83 cb 56 cb 14 cb 1014,2 hPa 0,0 l/m 8,0 km/h (2 Bft) SW 218 0 min 0,000 mm 0,0 UV-I 0 W/m 2,2 C 1,7 C 19,3 km/h (3 Bft)
19.02.2020 02:58 3,2 C 2,2 C 3,3 C 4,4 C 4,4 C 93 % 15 lf 16 cb 83 cb 56 cb 14 cb 1014,2 hPa 0,0 l/m 8,8 km/h (2 Bft) SW 220 0 min 0,000 mm 0,0 UV-I 0 W/m 2,2 C 1,0 C 17,7 km/h (3 Bft)
19.02.2020 02:56 3,2 C 2,2 C 3,3 C 4,4 C 4,4 C 93 % 15 lf 16 cb 83 cb 56 cb 14 cb 1014,2 hPa 0,0 l/m 10,9 km/h (2 Bft) SW 221 0 min 0,000 mm 0,0 UV-I 0 W/m 2,2 C -0,6 C 22,5 km/h (4 Bft)
19.02.2020 02:54 3,1 C 2,2 C 3,3 C 4,4 C 4,4 C 93 % 15 lf 17 cb 84 cb 56 cb 14 cb 1014,1 hPa 0,0 l/m 9,7 km/h (2 Bft) W-SW 237 0 min 0,000 mm 0,0 UV-I 0 W/m 2,1 C 0,2 C 27,4 km/h (4 Bft)
19.02.2020 02:52 3,2 C 2,2 C 3,3 C 4,4 C 4,4 C 93 % 15 lf 17 cb 84 cb 56 cb 14 cb 1014,1 hPa 0,0 l/m 8,9 km/h (2 Bft) SW 227 0 min 0,000 mm 0,0 UV-I 0 W/m 2,2 C 0,9 C 19,3 km/h (3 Bft)
19.02.2020 02:50 3,2 C 2,2 C 3,3 C 4,4 C 4,4 C 93 % 15 lf 16 cb 84 cb 56 cb 14 cb 1014,0 hPa 0,0 l/m 10,3 km/h (2 Bft) S 175 0 min 0,000 mm 0,0 UV-I 0 W/m 2,2 C -0,1 C 19,3 km/h (3 Bft)
19.02.2020 02:48 3,2 C 2,2 C 3,3 C 4,4 C 4,4 C 93 % 15 lf 15 cb 84 cb 56 cb 14 cb 1013,9 hPa 0,0 l/m 10,6 km/h (2 Bft) S 182 0 min 0,000 mm 0,0 UV-I 0 W/m 2,2 C -0,4 C 32,2 km/h (5 Bft)
19.02.2020 02:46 3,2 C 2,8 C 3,3 C 4,4 C 4,4 C 93 % 15 lf 13 cb 84 cb 56 cb 14 cb 1014,1 hPa 0,2 l/m 9,8 km/h (2 Bft) W-SW 247 0 min 0,000 mm 0,0 UV-I 0 W/m 2,2 C 0,2 C 20,9 km/h (4 Bft)
19.02.2020 02:44 3,2 C 2,8 C 3,3 C 4,4 C 4,4 C 93 % 15 lf 14 cb 84 cb 56 cb 14 cb 1014,2 hPa 0,0 l/m 11,1 km/h (2 Bft) SW 225 0 min 0,000 mm 0,0 UV-I 0 W/m 2,2 C -0,7 C 29,0 km/h (5 Bft)
19.02.2020 02:42 3,2 C 2,8 C 3,9 C 4,4 C 4,4 C 93 % 15 lf 14 cb 85 cb 56 cb 14 cb 1014,1 hPa 0,0 l/m 10,0 km/h (2 Bft) S-SO 162 0 min 0,000 mm 0,0 UV-I 0 W/m 2,2 C 0,1 C 20,9 km/h (4 Bft)
19.02.2020 02:40 3,3 C 2,8 C 3,9 C 4,4 C 4,4 C 93 % 15 lf 14 cb 85 cb 56 cb 14 cb 1014,2 hPa 0,0 l/m 6,1 km/h (2 Bft) S-SW 194 0 min 0,000 mm 0,0 UV-I 0 W/m 2,3 C 3,3 C 11,3 km/h (2 Bft)
19.02.2020 02:39 3,3 C 2,8 C 3,9 C 4,4 C 4,4 C 93 % 15 lf 14 cb 85 cb 56 cb 14 cb 1014,1 hPa 0,0 l/m 7,5 km/h (2 Bft) SW 230 0 min 0,000 mm 0,0 UV-I 0 W/m 2,3 C 2,3 C 16,1 km/h (3 Bft)
19.02.2020 02:38 3,3 C 2,8 C 3,9 C 4,4 C 4,4 C 93 % 15 lf 13 cb 85 cb 56 cb 14 cb 1014,1 hPa 0,2 l/m 11,6 km/h (2 Bft) S 171 0 min 0,000 mm 0,0 UV-I 0 W/m 2,3 C -0,9 C 22,5 km/h (4 Bft)
19.02.2020 02:36 3,3 C 2,8 C 3,9 C 4,4 C 4,4 C 93 % 15 lf 12 cb 85 cb 56 cb 14 cb 1014,1 hPa 0,0 l/m 10,5 km/h (2 Bft) SW 232 0 min 0,000 mm 0,0 UV-I 0 W/m 2,3 C -0,2 C 19,3 km/h (3 Bft)
19.02.2020 02:34 3,3 C 2,8 C 3,9 C 4,4 C 4,4 C 93 % 15 lf 11 cb 85 cb 56 cb 14 cb 1014,3 hPa 0,0 l/m 7,4 km/h (2 Bft) SW 232 0 min 0,000 mm 0,0 UV-I 0 W/m 2,3 C 2,4 C 16,1 km/h (3 Bft)
19.02.2020 02:32 3,3 C 2,8 C 3,9 C 4,4 C 4,4 C 93 % 15 lf 10 cb 85 cb 57 cb 14 cb 1014,2 hPa 0,0 l/m 13,5 km/h (3 Bft) S-SO 148 0 min 0,000 mm 0,0 UV-I 0 W/m 2,3 C -2,1 C 30,6 km/h (5 Bft)
19.02.2020 02:30 3,4 C 2,8 C 3,9 C 4,4 C 4,4 C 93 % 15 lf 8 cb 85 cb 57 cb 14 cb 1014,3 hPa 0,0 l/m 8,6 km/h (2 Bft) SW 227 0 min 0,000 mm 0,0 UV-I 0 W/m 2,4 C 1,4 C 19,3 km/h (3 Bft)
19.02.2020 02:28 3,4 C 2,8 C 3,9 C 4,4 C 4,4 C 93 % 15 lf 7 cb 85 cb 57 cb 14 cb 1014,3 hPa 0,2 l/m 7,5 km/h (2 Bft) S-SW 209 0 min 0,000 mm 0,0 UV-I 0 W/m 2,4 C 2,4 C 11,3 km/h (2 Bft)
19.02.2020 02:26 3,4 C 2,8 C 3,9 C 4,4 C 4,4 C 93 % 15 lf 7 cb 85 cb 57 cb 14 cb 1014,5 hPa 0,0 l/m 11,4 km/h (2 Bft) SW 229 0 min 0,000 mm 0,0 UV-I 0 W/m 2,4 C -0,7 C 29,0 km/h (5 Bft)
19.02.2020 02:24 3,5 C 2,8 C 3,9 C 4,4 C 4,4 C 92 % 15 lf 6 cb 85 cb 57 cb 14 cb 1014,4 hPa 0,0 l/m 9,8 km/h (2 Bft) SW 227 0 min 0,000 mm 0,0 UV-I 0 W/m 2,3 C 0,6 C 19,3 km/h (3 Bft)
19.02.2020 02:22 3,5 C 2,8 C 3,9 C 4,4 C 4,4 C 92 % 15 lf 5 cb 85 cb 57 cb 14 cb 1014,3 hPa 0,0 l/m 9,2 km/h (2 Bft) S-SW 205 0 min 0,000 mm 0,0 UV-I 0 W/m 2,3 C 1,0 C 16,1 km/h (3 Bft)
19.02.2020 02:20 3,6 C 2,8 C 3,9 C 4,4 C 4,4 C 93 % 15 lf 5 cb 85 cb 57 cb 14 cb 1014,5 hPa 0,0 l/m 8,8 km/h (2 Bft) S-SW 200 0 min 0,000 mm 0,0 UV-I 0 W/m 2,6 C 1,5 C 20,9 km/h (4 Bft)
19.02.2020 02:18 3,6 C 2,8 C 3,9 C 4,4 C 4,4 C 92 % 15 lf 5 cb 85 cb 57 cb 14 cb 1014,4 hPa 0,0 l/m 11,8 km/h (2 Bft) SW 229 0 min 0,000 mm 0,0 UV-I 0 W/m 2,4 C -0,7 C 24,1 km/h (4 Bft)
19.02.2020 02:16 3,6 C 2,8 C 3,9 C 4,4 C 4,4 C 92 % 15 lf 5 cb 85 cb 57 cb 14 cb 1014,5 hPa 0,0 l/m 11,1 km/h (2 Bft) S-SO 157 0 min 0,000 mm 0,0 UV-I 0 W/m 2,4 C -0,3 C 27,4 km/h (4 Bft)
19.02.2020 02:14 3,6 C 2,8 C 3,9 C 4,4 C 4,4 C 92 % 15 lf 5 cb 85 cb 57 cb 14 cb 1014,4 hPa 0,0 l/m 10,2 km/h (2 Bft) S-SW 210 0 min 0,000 mm 0,0 UV-I 0 W/m 2,4 C 0,4 C 24,1 km/h (4 Bft)
19.02.2020 02:12 3,7 C 2,8 C 3,9 C 4,4 C 4,4 C 92 % 15 lf 5 cb 85 cb 57 cb 14 cb 1014,7 hPa 0,2 l/m 13,2 km/h (3 Bft) SW 219 0 min 0,000 mm 0,0 UV-I 0 W/m 2,5 C -1,5 C 30,6 km/h (5 Bft)
19.02.2020 02:10 3,7 C 2,8 C 3,9 C 4,4 C 4,4 C 92 % 15 lf 5 cb 85 cb 56 cb 14 cb 1014,7 hPa 0,0 l/m 8,6 km/h (2 Bft) SW 227 0 min 0,000 mm 0,0 UV-I 0 W/m 2,5 C 1,7 C 27,4 km/h (4 Bft)
19.02.2020 02:08 3,7 C 2,8 C 3,9 C 4,4 C 4,4 C 92 % 15 lf 5 cb 85 cb 56 cb 14 cb 1014,7 hPa 0,0 l/m 8,0 km/h (2 Bft) S-SW 213 0 min 0,000 mm 0,0 UV-I 0 W/m 2,5 C 2,2 C 20,9 km/h (4 Bft)
19.02.2020 02:06 3,8 C 2,8 C 3,9 C 4,4 C 4,4 C 92 % 15 lf 5 cb 85 cb 56 cb 14 cb 1014,7 hPa 0,0 l/m 5,6 km/h (1 Bft) S-SW 205 0 min 0,000 mm 0,0 UV-I 0 W/m 2,6 C 3,8 C 9,7 km/h (2 Bft)
19.02.2020 02:05 3,8 C 2,8 C 3,9 C 4,4 C 4,4 C 92 % 15 lf 5 cb 85 cb 56 cb 14 cb 1014,7 hPa 0,0 l/m 10,8 km/h (2 Bft) S-SW 194 0 min 0,000 mm 0,0 UV-I 0 W/m 2,6 C 0,2 C 19,3 km/h (3 Bft)
19.02.2020 02:04 3,8 C 2,8 C 3,9 C 4,4 C 4,4 C 92 % 15 lf 5 cb 85 cb 56 cb 14 cb 1014,6 hPa 0,0 l/m 12,2 km/h (2 Bft) SW 234 0 min 0,000 mm 0,0 UV-I 0 W/m 2,6 C -0,8 C 24,1 km/h (4 Bft)
19.02.2020 02:02 3,8 C 2,8 C 3,9 C 4,4 C 4,4 C 92 % 15 lf 5 cb 85 cb 56 cb 14 cb 1014,7 hPa 0,0 l/m 14,4 km/h (3 Bft) SW 236 0 min 0,000 mm 0,0 UV-I 0 W/m 2,6 C -2,1 C 25,7 km/h (4 Bft)
19.02.2020 02:00 3,8 C 2,8 C 3,9 C 4,4 C 4,4 C 92 % 15 lf 5 cb 85 cb 56 cb 14 cb 1014,8 hPa 0,0 l/m 9,9 km/h (2 Bft) S-SO 150 0 min 0,000 mm 0,0 UV-I 0 W/m 2,6 C 0,8 C 22,5 km/h (4 Bft)
19.02.2020 01:58 3,8 C 3,3 C 3,9 C 4,4 C 4,4 C 92 % 15 lf 5 cb 85 cb 56 cb 14 cb 1014,9 hPa 0,0 l/m 9,3 km/h (2 Bft) S 189 0 min 0,000 mm 0,0 UV-I 0 W/m 2,6 C 1,3 C 27,4 km/h (4 Bft)
19.02.2020 01:56 3,9 C 3,3 C 3,9 C 4,4 C 4,4 C 92 % 15 lf 5 cb 85 cb 56 cb 14 cb 1015,0 hPa 0,2 l/m 10,2 km/h (2 Bft) SW 225 0 min 0,000 mm 0,0 UV-I 0 W/m 2,7 C 0,7 C 24,1 km/h (4 Bft)
19.02.2020 01:54 3,9 C 3,3 C 3,9 C 4,4 C 4,4 C 92 % 15 lf 5 cb 85 cb 56 cb 14 cb 1015,1 hPa 0,0 l/m 12,8 km/h (3 Bft) SW 230 0 min 0,000 mm 0,0 UV-I 0 W/m 2,7 C -1,0 C 29,0 km/h (5 Bft)
19.02.2020 01:52 3,9 C 3,3 C 3,9 C 4,4 C 4,4 C 92 % 15 lf 5 cb 85 cb 56 cb 14 cb 1015,0 hPa 0,2 l/m 10,3 km/h (2 Bft) SW 231 0 min 0,000 mm 0,0 UV-I 0 W/m 2,7 C 0,6 C 24,1 km/h (4 Bft)
19.02.2020 01:50 4,0 C 3,3 C 3,9 C 4,4 C 4,4 C 92 % 15 lf 5 cb 85 cb 56 cb 14 cb 1015,2 hPa 0,0 l/m 11,0 km/h (2 Bft) W 263 0 min 0,000 mm 0,0 UV-I 0 W/m 2,8 C 0,3 C 20,9 km/h (4 Bft)
19.02.2020 01:48 4,0 C 3,3 C 3,9 C 4,4 C 4,4 C 92 % 15 lf 5 cb 85 cb 56 cb 14 cb 1015,2 hPa 0,0 l/m 6,4 km/h (2 Bft) SW 219 0 min 0,000 mm 0,0 UV-I 0 W/m 2,8 C 4,0 C 16,1 km/h (3 Bft)
19.02.2020 01:46 4,1 C 3,3 C 3,9 C 4,4 C 4,4 C 92 % 15 lf 5 cb 85 cb 56 cb 14 cb 1015,3 hPa 0,2 l/m 12,0 km/h (2 Bft) S 190 0 min 0,000 mm 0,0 UV-I 0 W/m 2,9 C -0,3 C 27,4 km/h (4 Bft)
19.02.2020 01:44 4,1 C 3,3 C 3,9 C 4,4 C 4,4 C 91 % 15 lf 5 cb 85 cb 56 cb 14 cb 1015,3 hPa 0,0 l/m 10,3 km/h (2 Bft) SO 133 0 min 0,000 mm 0,0 UV-I 0 W/m 2,8 C 0,9 C 22,5 km/h (4 Bft)
19.02.2020 01:42 4,1 C 3,3 C 3,9 C 4,4 C 4,4 C 91 % 14 lf 5 cb 85 cb 56 cb 14 cb 1015,2 hPa 0,0 l/m 8,3 km/h (2 Bft) S-SW 213 0 min 0,000 mm 0,0 UV-I 0 W/m 2,8 C 2,4 C 20,9 km/h (4 Bft)
19.02.2020 01:40 4,1 C 3,3 C 3,9 C 4,4 C 4,4 C 91 % 13 lf 5 cb 85 cb 56 cb 14 cb 1015,2 hPa 0,0 l/m 13,6 km/h (3 Bft) SW 220 0 min 0,000 mm 0,0 UV-I 0 W/m 2,8 C -1,2 C 24,1 km/h (4 Bft)
19.02.2020 01:39 4,1 C 3,3 C 3,9 C 4,4 C 4,4 C 91 % 12 lf 5 cb 85 cb 56 cb 14 cb 1015,4 hPa 0,0 l/m 8,3 km/h (2 Bft) SW 232 0 min 0,000 mm 0,0 UV-I 0 W/m 2,8 C 2,4 C 16,1 km/h (3 Bft)
19.02.2020 01:38 4,1 C 3,3 C 3,9 C 4,4 C 4,4 C 91 % 12 lf 5 cb 85 cb 56 cb 14 cb 1015,1 hPa 0,0 l/m 13,3 km/h (3 Bft) S 185 0 min 0,000 mm 0,0 UV-I 0 W/m 2,8 C -1,1 C 22,5 km/h (4 Bft)
19.02.2020 01:36 4,1 C 3,3 C 3,9 C 4,4 C 4,4 C 91 % 11 lf 5 cb 85 cb 56 cb 14 cb 1015,3 hPa 0,0 l/m 13,8 km/h (3 Bft) S 178 0 min 0,000 mm 0,0 UV-I 0 W/m 2,8 C -1,4 C 30,6 km/h (5 Bft)
19.02.2020 01:34 4,1 C 3,3 C 3,9 C 4,4 C 4,4 C 91 % 11 lf 5 cb 85 cb 56 cb 14 cb 1015,3 hPa 0,0 l/m 8,4 km/h (2 Bft) S-SW 192 0 min 0,000 mm 0,0 UV-I 0 W/m 2,8 C 2,3 C 17,7 km/h (3 Bft)
19.02.2020 01:32 4,1 C 3,3 C 3,9 C 4,4 C 4,4 C 91 % 10 lf 5 cb 85 cb 56 cb 14 cb 1015,3 hPa 0,0 l/m 17,5 km/h (3 Bft) W-SW 241 0 min 0,000 mm 0,0 UV-I 0 W/m 2,8 C -3,2 C 20,9 km/h (4 Bft)
19.02.2020 01:30 4,1 C 3,3 C 3,9 C 4,4 C 4,4 C 91 % 4 lf 5 cb 85 cb 56 cb 14 cb 1015,3 hPa 0,2 l/m 12,0 km/h (2 Bft) W-SW 255 0 min 0,000 mm 0,0 UV-I 0 W/m 2,8 C -0,3 C 22,5 km/h (4 Bft)
19.02.2020 01:28 4,1 C 3,3 C 3,9 C 4,4 C 4,4 C 91 % 1 lf 5 cb 85 cb 56 cb 14 cb 1015,2 hPa 0,0 l/m 13,2 km/h (3 Bft) SW 231 0 min 0,000 mm 0,0 UV-I 0 W/m 2,8 C -1,0 C 24,1 km/h (4 Bft)
19.02.2020 01:26 4,1 C 3,3 C 3,9 C 4,4 C 4,4 C 91 % 0 lf 5 cb 85 cb 56 cb 14 cb 1015,2 hPa 0,0 l/m 10,9 km/h (2 Bft) W-SW 242 0 min 0,000 mm 0,0 UV-I 0 W/m 2,8 C 0,4 C 19,3 km/h (3 Bft)
19.02.2020 01:24 4,1 C 3,3 C 3,9 C 4,4 C 4,4 C 91 % 1 lf 5 cb 85 cb 56 cb 14 cb 1015,4 hPa 0,0 l/m 7,7 km/h (2 Bft) S-SW 209 0 min 0,000 mm 0,0 UV-I 0 W/m 2,8 C 2,9 C 20,9 km/h (4 Bft)
19.02.2020 01:22 4,1 C 3,3 C 3,9 C 4,4 C 4,4 C 91 % 1 lf 5 cb 85 cb 56 cb 14 cb 1015,2 hPa 0,0 l/m 10,8 km/h (2 Bft) S-SO 167 0 min 0,000 mm 0,0 UV-I 0 W/m 2,8 C 0,5 C 29,0 km/h (5 Bft)
19.02.2020 01:20 4,1 C 3,3 C 3,9 C 4,4 C 4,4 C 91 % 1 lf 5 cb 85 cb 56 cb 14 cb 1015,3 hPa 0,0 l/m 12,3 km/h (3 Bft) SW 236 0 min 0,000 mm 0,0 UV-I 0 W/m 2,8 C -0,5 C 27,4 km/h (4 Bft)
19.02.2020 01:18 4,1 C 3,3 C 3,9 C 4,4 C 4,4 C 91 % 1 lf 5 cb 85 cb 56 cb 14 cb 1015,3 hPa 0,0 l/m 12,2 km/h (2 Bft) SW 225 0 min 0,000 mm 0,0 UV-I 0 W/m 2,8 C -0,4 C 22,5 km/h (4 Bft)
19.02.2020 01:17 4,1 C 3,3 C 3,9 C 4,4 C 4,4 C 91 % 1 lf 5 cb 85 cb 56 cb 14 cb 1015,5 hPa 0,0 l/m 11,1 km/h (2 Bft) SW 235 0 min 0,000 mm 0,0 UV-I 0 W/m 2,8 C 0,3 C 27,4 km/h (4 Bft)
19.02.2020 01:15 4,1 C 3,3 C 3,9 C 4,4 C 4,4 C 91 % 2 lf 5 cb 85 cb 56 cb 14 cb 1015,5 hPa 0,0 l/m 8,1 km/h (2 Bft) SW 228 0 min 0,000 mm 0,0 UV-I 0 W/m 2,8 C 2,6 C 19,3 km/h (3 Bft)
19.02.2020 01:13 4,1 C 3,3 C 3,9 C 4,4 C 4,4 C 91 % 3 lf 5 cb 85 cb 56 cb 14 cb 1015,4 hPa 0,0 l/m 11,2 km/h (2 Bft) S-SW 206 0 min 0,000 mm 0,0 UV-I 0 W/m 2,8 C 0,2 C 25,7 km/h (4 Bft)
19.02.2020 01:11 4,2 C 3,3 C 3,9 C 4,4 C 4,4 C 91 % 3 lf 5 cb 85 cb 56 cb 14 cb 1015,5 hPa 0,0 l/m 9,9 km/h (2 Bft) S-SW 195 0 min 0,000 mm 0,0 UV-I 0 W/m 2,9 C 1,3 C 20,9 km/h (4 Bft)
19.02.2020 01:09 4,2 C 3,3 C 3,9 C 4,4 C 4,4 C 90 % 2 lf 5 cb 85 cb 56 cb 14 cb 1015,6 hPa 0,0 l/m 10,5 km/h (2 Bft) S-SO 161 0 min 0,000 mm 0,0 UV-I 0 W/m 2,7 C 0,8 C 20,9 km/h (4 Bft)
19.02.2020 01:07 4,2 C 3,3 C 3,9 C 4,4 C 4,4 C 90 % 3 lf 5 cb 85 cb 56 cb 14 cb 1015,6 hPa 0,2 l/m 8,3 km/h (2 Bft) SW 224 0 min 0,000 mm 0,0 UV-I 0 W/m 2,7 C 2,5 C 20,9 km/h (4 Bft)
19.02.2020 01:05 4,2 C 3,3 C 3,9 C 4,4 C 4,4 C 90 % 2 lf 5 cb 85 cb 56 cb 14 cb 1015,6 hPa 0,0 l/m 9,7 km/h (2 Bft) SW 221 0 min 0,000 mm 0,0 UV-I 0 W/m 2,7 C 1,4 C 29,0 km/h (5 Bft)
19.02.2020 01:03 4,3 C 3,3 C 3,3 C 4,4 C 4,4 C 90 % 1 lf 5 cb 84 cb 56 cb 14 cb 1015,6 hPa 0,0 l/m 12,6 km/h (3 Bft) SW 229 0 min 0,000 mm 0,0 UV-I 0 W/m 2,8 C -0,4 C 29,0 km/h (5 Bft)
19.02.2020 01:01 4,3 C 3,3 C 3,3 C 4,4 C 4,4 C 90 % 2 lf 5 cb 84 cb 56 cb 14 cb 1015,7 hPa 0,0 l/m 12,3 km/h (3 Bft) SW 216 0 min 0,025 mm 0,0 UV-I 0 W/m 2,8 C -0,2 C 25,7 km/h (4 Bft)
19.02.2020 00:59 4,3 C 3,3 C 3,3 C 4,4 C 4,4 C 89 % 3 lf 5 cb 84 cb 56 cb 14 cb 1015,8 hPa 0,0 l/m 10,4 km/h (2 Bft) S-SO 153 0 min 0,000 mm 0,0 UV-I 0 W/m 2,7 C 1,0 C 20,9 km/h (4 Bft)
19.02.2020 00:57 4,4 C 3,3 C 3,3 C 4,4 C 4,4 C 89 % 4 lf 5 cb 84 cb 56 cb 14 cb 1015,7 hPa 0,0 l/m 10,6 km/h (2 Bft) S 178 0 min 0,000 mm 0,0 UV-I 0 W/m 2,7 C 1,0 C 19,3 km/h (3 Bft)
19.02.2020 00:56 4,4 C 3,3 C 3,3 C 4,4 C 4,4 C 89 % 4 lf 5 cb 84 cb 56 cb 14 cb 1015,8 hPa 0,0 l/m 15,4 km/h (3 Bft) W-SW 240 0 min 0,000 mm 0,0 UV-I 0 W/m 2,7 C -1,9 C 27,4 km/h (4 Bft)
19.02.2020 00:55 4,4 C 3,3 C 3,3 C 4,4 C 4,4 C 89 % 4 lf 5 cb 84 cb 56 cb 14 cb 1015,8 hPa 0,0 l/m 14,5 km/h (3 Bft) W-SW 239 0 min 0,000 mm 0,0 UV-I 0 W/m 2,7 C -1,4 C 33,8 km/h (5 Bft)
19.02.2020 00:53 4,4 C 3,3 C 3,3 C 4,4 C 4,4 C 89 % 6 lf 5 cb 84 cb 56 cb 14 cb 1015,8 hPa 0,0 l/m 13,9 km/h (3 Bft) S-SW 212 0 min 0,000 mm 0,0 UV-I 0 W/m 2,7 C -1,1 C 37,0 km/h (5 Bft)
19.02.2020 00:51 4,4 C 3,3 C 3,3 C 4,4 C 4,4 C 89 % 4 lf 5 cb 84 cb 56 cb 14 cb 1015,9 hPa 0,0 l/m 13,1 km/h (3 Bft) S 171 0 min 0,000 mm 0,0 UV-I 0 W/m 2,7 C -0,6 C 33,8 km/h (5 Bft)
19.02.2020 00:49 4,5 C 3,3 C 3,3 C 4,4 C 4,4 C 88 % 3 lf 5 cb 84 cb 56 cb 14 cb 1015,9 hPa 0,0 l/m 14,2 km/h (3 Bft) SO 136 0 min 0,000 mm 0,0 UV-I 0 W/m 2,7 C -1,1 C 22,5 km/h (4 Bft)
19.02.2020 00:47 4,5 C 3,3 C 3,3 C 4,4 C 4,4 C 88 % 3 lf 5 cb 84 cb 56 cb 14 cb 1015,9 hPa 0,0 l/m 13,6 km/h (3 Bft) W-SW 244 0 min 0,000 mm 0,0 UV-I 0 W/m 2,7 C -0,8 C 27,4 km/h (4 Bft)
19.02.2020 00:45 4,5 C 3,3 C 3,3 C 4,4 C 4,4 C 88 % 1 lf 5 cb 84 cb 56 cb 14 cb 1016,1 hPa 0,0 l/m 9,6 km/h (2 Bft) SW 217 0 min 0,000 mm 0,0 UV-I 0 W/m 2,7 C 1,8 C 19,3 km/h (3 Bft)
19.02.2020 00:43 4,5 C 3,3 C 3,3 C 4,4 C 4,4 C 88 % 2 lf 5 cb 84 cb 56 cb 14 cb 1016,0 hPa 0,0 l/m 10,8 km/h (2 Bft) SW 236 0 min 0,000 mm 0,0 UV-I 0 W/m 2,7 C 1,0 C 24,1 km/h (4 Bft)
19.02.2020 00:41 4,6 C 3,3 C 3,3 C 4,4 C 4,4 C 88 % 3 lf 5 cb 84 cb 56 cb 14 cb 1016,1 hPa 0,0 l/m 9,0 km/h (2 Bft) SW 222 0 min 0,000 mm 0,0 UV-I 0 W/m 2,8 C 2,4 C 19,3 km/h (3 Bft)
19.02.2020 00:39 4,5 C 3,3 C 3,3 C 4,4 C 4,4 C 87 % 3 lf 5 cb 84 cb 56 cb 14 cb 1016,1 hPa 0,0 l/m 12,1 km/h (2 Bft) S 190 0 min 0,000 mm 0,0 UV-I 0 W/m 2,5 C 0,1 C 25,7 km/h (4 Bft)
19.02.2020 00:37 4,5 C 3,3 C 3,3 C 4,4 C 4,4 C 87 % 3 lf 5 cb 84 cb 56 cb 14 cb 1016,1 hPa 0,0 l/m 11,0 km/h (2 Bft) O-NO 73 0 min 0,000 mm 0,0 UV-I 0 W/m 2,5 C 0,8 C 24,1 km/h (4 Bft)
19.02.2020 00:35 4,5 C 3,3 C 3,3 C 4,4 C 4,4 C 87 % 2 lf 5 cb 84 cb 56 cb 14 cb 1016,1 hPa 0,0 l/m 9,2 km/h (2 Bft) SW 225 0 min 0,000 mm 0,0 UV-I 0 W/m 2,5 C 2,1 C 20,9 km/h (4 Bft)
19.02.2020 00:33 4,4 C 2,8 C 3,3 C 4,4 C 4,4 C 87 % 1 lf 5 cb 84 cb 56 cb 14 cb 1016,1 hPa 0,0 l/m 8,1 km/h (2 Bft) SW 236 0 min 0,000 mm 0,0 UV-I 0 W/m 2,4 C 2,9 C 17,7 km/h (3 Bft)
19.02.2020 00:31 4,4 C 2,8 C 3,3 C 4,4 C 4,4 C 87 % 1 lf 5 cb 84 cb 56 cb 14 cb 1016,2 hPa 0,0 l/m 7,0 km/h (2 Bft) S-SO 153 0 min 0,000 mm 0,0 UV-I 0 W/m 2,4 C 3,9 C 20,9 km/h (4 Bft)
19.02.2020 00:29 4,4 C 2,8 C 3,3 C 4,4 C 4,4 C 87 % 0 lf 5 cb 84 cb 56 cb 14 cb 1016,3 hPa 0,0 l/m 11,5 km/h (2 Bft) W-SW 240 0 min 0,000 mm 0,0 UV-I 0 W/m 2,4 C 0,4 C 20,9 km/h (4 Bft)
19.02.2020 00:27 4,3 C 2,8 C 3,3 C 4,4 C 4,4 C 87 % 0 lf 5 cb 84 cb 56 cb 14 cb 1016,3 hPa 0,0 l/m 10,6 km/h (2 Bft) SW 219 0 min 0,000 mm 0,0 UV-I 0 W/m 2,3 C 0,9 C 24,1 km/h (4 Bft)
19.02.2020 00:25 4,3 C 2,8 C 3,3 C 4,4 C 4,4 C 87 % 0 lf 5 cb 84 cb 56 cb 14 cb 1016,4 hPa 0,0 l/m 10,5 km/h (2 Bft) SW 232 0 min 0,000 mm 0,0 UV-I 0 W/m 2,3 C 0,9 C 24,1 km/h (4 Bft)
19.02.2020 00:23 4,3 C 2,8 C 3,3 C 4,4 C 4,4 C 87 % 0 lf 5 cb 84 cb 56 cb 14 cb 1016,4 hPa 0,0 l/m 12,2 km/h (2 Bft) S-SW 208 0 min 0,000 mm 0,0 UV-I 0 W/m 2,3 C -0,2 C 32,2 km/h (5 Bft)
19.02.2020 00:21 4,3 C 2,8 C 3,3 C 4,4 C 4,4 C 87 % 0 lf 5 cb 84 cb 56 cb 14 cb 1016,4 hPa 0,0 l/m 6,5 km/h (2 Bft) SW 215 0 min 0,000 mm 0,0 UV-I 0 W/m 2,3 C 4,2 C 16,1 km/h (3 Bft)
19.02.2020 00:19 4,3 C 2,8 C 3,3 C 4,4 C 4,4 C 87 % 0 lf 5 cb 84 cb 56 cb 14 cb 1016,5 hPa 0,0 l/m 8,7 km/h (2 Bft) SW 225 0 min 0,000 mm 0,0 UV-I 0 W/m 2,3 C 2,3 C 19,3 km/h (3 Bft)
19.02.2020 00:17 4,3 C 2,8 C 3,3 C 4,4 C 4,4 C 87 % 0 lf 5 cb 84 cb 56 cb 14 cb 1016,5 hPa 0,0 l/m 8,7 km/h (2 Bft) SW 220 0 min 0,000 mm 0,0 UV-I 0 W/m 2,3 C 2,3 C 19,3 km/h (3 Bft)
19.02.2020 00:15 4,3 C 2,8 C 3,3 C 4,4 C 4,4 C 87 % 0 lf 5 cb 84 cb 56 cb 14 cb 1016,7 hPa 0,0 l/m 12,0 km/h (2 Bft) SW 232 0 min 0,000 mm 0,0 UV-I 0 W/m 2,3 C -0,0 C 24,1 km/h (4 Bft)
19.02.2020 00:13 4,3 C 2,8 C 3,3 C 4,4 C 4,4 C 87 % 0 lf 5 cb 84 cb 56 cb 14 cb 1016,6 hPa 0,0 l/m 8,3 km/h (2 Bft) W-SW 247 0 min 0,000 mm 0,0 UV-I 0 W/m 2,3 C 2,6 C 19,3 km/h (3 Bft)
19.02.2020 00:11 4,3 C 2,8 C 3,3 C 4,4 C 4,4 C 87 % 0 lf 5 cb 84 cb 56 cb 14 cb 1016,7 hPa 0,0 l/m 7,9 km/h (2 Bft) SO 142 0 min 0,000 mm 0,0 UV-I 0 W/m 2,3 C 3,0 C 17,7 km/h (3 Bft)
19.02.2020 00:09 4,3 C 2,8 C 3,3 C 4,4 C 4,4 C 87 % 0 lf 5 cb 84 cb 56 cb 14 cb 1016,8 hPa 0,0 l/m 7,0 km/h (2 Bft) S 180 0 min 0,000 mm 0,0 UV-I 0 W/m 2,3 C 3,8 C 14,5 km/h (3 Bft)
19.02.2020 00:07 4,3 C 2,8 C 3,3 C 4,4 C 4,4 C 87 % 0 lf 5 cb 84 cb 56 cb 14 cb 1016,8 hPa 0,0 l/m 6,7 km/h (2 Bft) S-SO 165 0 min 0,000 mm 0,0 UV-I 0 W/m 2,3 C 4,0 C 14,5 km/h (3 Bft)
19.02.2020 00:06 4,3 C 2,8 C 3,3 C 4,4 C 4,4 C 87 % 0 lf 5 cb 84 cb 56 cb 14 cb 1016,9 hPa 0,0 l/m 6,9 km/h (2 Bft) SW 229 0 min 0,000 mm 0,0 UV-I 0 W/m 2,3 C 3,9 C 11,3 km/h (2 Bft)
19.02.2020 00:05 4,3 C 2,8 C 3,3 C 4,4 C 4,4 C 87 % 0 lf 5 cb 84 cb 56 cb 14 cb 1016,9 hPa 0,0 l/m 9,7 km/h (2 Bft) S-SO 155 0 min 0,000 mm 0,0 UV-I 0 W/m 2,3 C 1,5 C 22,5 km/h (4 Bft)
19.02.2020 00:03 4,3 C 2,2 C 3,3 C 4,4 C 4,4 C 87 % 0 lf 5 cb 84 cb 56 cb 14 cb 1016,9 hPa 0,0 l/m 8,6 km/h (2 Bft) SW 226 0 min 0,000 mm 0,0 UV-I 0 W/m 2,3 C 2,4 C 19,3 km/h (3 Bft)
19.02.2020 00:01 4,2 C 2,2 C 3,3 C 4,4 C 4,4 C 87 % 0 lf 5 cb 84 cb 56 cb 14 cb 1016,9 hPa 0,0 l/m 8,6 km/h (2 Bft) S 170 0 min 0,000 mm 0,0 UV-I 0 W/m 2,2 C 2,3 C 22,5 km/h (4 Bft)
_ Min-Zeit 08:29 06:59 07:33 05:31 00:01 13:01 00:01 00:01 07:33 07:07 00:01 02:48 - 08:43 - - - - - - 13:27 08:33 02:06
Minimum _ 1,7 C 1,1 C 2,8 C 3,9 C 4,4 C 78 % 0 lf 5 cb 80 cb 55 cb 14 cb 1013,9 hPa - 5,5 km/h (1 Bft) - - - - - - 0,2 C -8,1 C 9,7 km/h (2 Bft)
_ Max-Zeit 00:41 12:53 12:33 12:47 00:01 05:17 01:44 06:15 01:05 02:12 00:01 12:59 01:07 07:01 - - 08:41 13:01 13:27 12:27 01:46 00:21 12:45
Maximum _ 4,6 C 9,4 C 5,6 C 5,0 C 4,4 C 95 % 15 lf 27 cb 85 cb 57 cb 14 cb 1021,4 hPa 0,2 l/m 22,5 km/h
W-NW (4 Bft)
- - 2 min 0,152 mm 1,7 UV-I 640 W/m 2,9 C 4,2 C 46,7 km/h
W-NW (6 Bft)
Durchschnitt _ 2,9 C 3,3 C 3,7 C 4,3 C 4,4 C 91 % 8 lf 11 cb 82 cb 56 cb 14 cb 1017,3 hPa #3,8 l/m 13,2 km/h (3 Bft) W - #1:41 h #0,406 mm 1,0 UV-I 178 W/m 1,6 C -2,2 C 25,7 km/h (4 Bft)